| time (UTC) | temp C | wind direction | speed KPH | gust KPH | rain 1hr cm | rain 24hr cm | rain mn cm | humidity % | barometer mb |
| 20260507025729 | 8 | 243 | 6.4 | 16.1 | 0.00 | 0.03 | 0.00 | 83 | 1008.7 |
| 20260507025629 | 8 | 242 | 6.4 | 16.1 | 0.00 | 0.03 | 0.00 | 83 | 1008.8 |
| 20260507025531 | 8 | 211 | 6.4 | 16.1 | 0.00 | 0.03 | 0.00 | 83 | 1008.7 |
| 20260507025445 | 8 | 215 | 6.4 | 16.1 | 0.00 | 0.03 | 0.00 | 83 | 1008.7 |
| 20260507025429 | 8 | 243 | 6.4 | 16.1 | 0.00 | 0.03 | 0.00 | 83 | 1008.7 |
| 20260507025328 | 8 | 262 | 8.0 | 16.1 | 0.00 | 0.03 | 0.00 | 83 | 1008.7 |
| 20260507025228 | 8 | 270 | 8.0 | 16.1 | 0.00 | 0.03 | 0.00 | 83 | 1008.7 |
| 20260507025128 | 8 | 248 | 6.4 | 16.1 | 0.00 | 0.03 | 0.00 | 83 | 1008.8 |
| 20260507025029 | 8 | 237 | 6.4 | 16.1 | 0.00 | 0.03 | 0.00 | 83 | 1008.7 |
| 20260507024938 | 8 | 252 | 6.4 | 16.1 | 0.00 | 0.03 | 0.00 | 83 | 1008.7 |
| 20260507024929 | 8 | 215 | 6.4 | 16.1 | 0.00 | 0.03 | 0.00 | 83 | 1008.7 |
| 20260507024829 | 8 | 259 | 6.4 | 16.1 | 0.00 | 0.03 | 0.00 | 83 | 1008.7 |
| 20260507024729 | 8 | 300 | 6.4 | 14.5 | 0.00 | 0.03 | 0.00 | 83 | 1008.7 |
| 20260507024629 | 8 | 259 | 6.4 | 14.5 | 0.00 | 0.03 | 0.00 | 83 | 1008.7 |
| 20260507024529 | 8 | 246 | 6.4 | 14.5 | 0.00 | 0.03 | 0.00 | 83 | 1008.7 |
| 20260507024429 | 8 | 263 | 6.4 | 14.5 | 0.00 | 0.03 | 0.00 | 83 | 1008.8 |
| 20260507024423 | 8 | 267 | 8.0 | 16.1 | 0.00 | 0.03 | 0.00 | 83 | 1008.7 |
| 20260507024414 | 8 | 271 | 8.0 | 16.1 | 0.00 | 0.03 | 0.00 | 83 | 1008.8 |
| 20260507024410 | 8 | 231 | 8.0 | 16.1 | 0.00 | 0.03 | 0.00 | 83 | 1008.7 |
| 20260507024152 | 8 | 223 | 8.0 | 16.1 | 0.00 | 0.03 | 0.00 | 83 | 1008.7 |
| 20260507024148 | 8 | 217 | 8.0 | 16.1 | 0.00 | 0.03 | 0.00 | 83 | 1008.7 |
| 20260507023928 | 8 | 272 | 8.0 | 16.1 | 0.00 | 0.03 | 0.00 | 83 | 1008.7 |
| 20260507023828 | 8 | 273 | 8.0 | 16.1 | 0.00 | 0.03 | 0.00 | 83 | 1008.7 |
| 20260507023629 | 8 | 267 | 8.0 | 16.1 | 0.00 | 0.03 | 0.00 | 83 | 1008.7 |
| 20260507023529 | 8 | 254 | 8.0 | 16.1 | 0.00 | 0.03 | 0.00 | 83 | 1008.8 |
| 20260507023433 | 8 | 255 | 8.0 | 16.1 | 0.00 | 0.03 | 0.00 | 83 | 1008.8 |
| 20260507023429 | 8 | 269 | 8.0 | 16.1 | 0.00 | 0.03 | 0.00 | 83 | 1008.8 |
| 20260507023419 | 8 | 265 | 8.0 | 19.3 | 0.00 | 0.03 | 0.00 | 83 | 1008.7 |
| 20260507023410 | 8 | 249 | 8.0 | 19.3 | 0.00 | 0.03 | 0.00 | 83 | 1008.7 |
| 20260507023152 | 8 | 256 | 8.0 | 19.3 | 0.00 | 0.03 | 0.00 | 83 | 1008.7 |
| 20260507023148 | 8 | 263 | 8.0 | 19.3 | 0.00 | 0.03 | 0.00 | 83 | 1008.7 |
| 20260507022929 | 8 | 234 | 8.0 | 19.3 | 0.00 | 0.03 | 0.00 | 83 | 1008.7 |
| 20260507022829 | 8 | 263 | 8.0 | 19.3 | 0.00 | 0.03 | 0.00 | 83 | 1008.8 |
| 20260507022729 | 8 | 255 | 8.0 | 19.3 | 0.00 | 0.03 | 0.00 | 83 | 1008.7 |
| 20260507022628 | 8 | 265 | 8.0 | 19.3 | 0.00 | 0.03 | 0.00 | 84 | 1008.7 |
| 20260507022528 | 8 | 261 | 8.0 | 19.3 | 0.00 | 0.03 | 0.00 | 83 | 1008.7 |
| 20260507022432 | 8 | 261 | 8.0 | 19.3 | 0.00 | 0.03 | 0.00 | 83 | 1008.7 |
| 20260507022428 | 8 | 243 | 8.0 | 19.3 | 0.00 | 0.03 | 0.00 | 83 | 1008.7 |
| 20260507022329 | 8 | 248 | 8.0 | 19.3 | 0.00 | 0.03 | 0.00 | 84 | 1008.7 |
| 20260507022229 | 8 | 238 | 8.0 | 17.7 | 0.00 | 0.03 | 0.00 | 84 | 1008.7 |
| 20260507022129 | 8 | 241 | 8.0 | 17.7 | 0.00 | 0.03 | 0.00 | 84 | 1008.7 |
| 20260507022029 | 8 | 263 | 8.0 | 17.7 | 0.00 | 0.03 | 0.00 | 84 | 1008.8 |
| 20260507021933 | 8 | 241 | 8.0 | 17.7 | 0.00 | 0.03 | 0.00 | 84 | 1008.7 |
| 20260507021929 | 8 | 252 | 8.0 | 17.7 | 0.00 | 0.03 | 0.00 | 84 | 1008.7 |
| 20260507021829 | 8 | 236 | 8.0 | 16.1 | 0.00 | 0.03 | 0.00 | 85 | 1008.7 |
| 20260507021729 | 8 | 214 | 8.0 | 16.1 | 0.00 | 0.03 | 0.00 | 85 | 1008.7 |
| 20260507021629 | 8 | 275 | 8.0 | 16.1 | 0.00 | 0.03 | 0.00 | 85 | 1008.7 |
| 20260507021529 | 8 | 265 | 6.4 | 16.1 | 0.00 | 0.03 | 0.00 | 85 | 1008.7 |
| 20260507021433 | 8 | 241 | 6.4 | 16.1 | 0.00 | 0.03 | 0.00 | 85 | 1008.6 |
| 20260507021429 | 8 | 263 | 6.4 | 16.1 | 0.00 | 0.03 | 0.00 | 85 | 1008.6 |
| 20260507021329 | 8 | 266 | 6.4 | 16.1 | 0.00 | 0.03 | 0.00 | 85 | 1008.7 |
| 20260507021229 | 8 | 236 | 6.4 | 16.1 | 0.00 | 0.03 | 0.00 | 85 | 1008.7 |
| 20260507021128 | 8 | 267 | 6.4 | 16.1 | 0.00 | 0.03 | 0.00 | 85 | 1008.6 |
| 20260507021028 | 8 | 240 | 6.4 | 14.5 | 0.00 | 0.03 | 0.00 | 85 | 1008.6 |
| 20260507020929 | 8 | 269 | 6.4 | 14.5 | 0.00 | 0.03 | 0.00 | 85 | 1008.6 |
| 20260507020829 | 8 | 267 | 6.4 | 14.5 | 0.00 | 0.03 | 0.00 | 85 | 1008.4 |
| 20260507020729 | 8 | 258 | 6.4 | 14.5 | 0.00 | 0.03 | 0.00 | 85 | 1008.4 |
| 20260507020629 | 8 | 229 | 6.4 | 14.5 | 0.00 | 0.03 | 0.00 | 85 | 1008.4 |
| 20260507020529 | 8 | 248 | 6.4 | 14.5 | 0.00 | 0.03 | 0.00 | 85 | 1008.4 |
| 20260507020433 | 8 | 250 | 6.4 | 14.5 | 0.00 | 0.03 | 0.00 | 85 | 1008.4 |
| 20260507020429 | 8 | 243 | 6.4 | 14.5 | 0.00 | 0.03 | 0.00 | 85 | 1008.4 |
| 20260507020329 | 8 | 248 | 4.8 | 14.5 | 0.00 | 0.03 | 0.00 | 85 | 1008.4 |
| 20260507020229 | 8 | 231 | 4.8 | 12.9 | 0.00 | 0.03 | 0.00 | 85 | 1008.3 |
| 20260507020128 | 8 | 250 | 4.8 | 12.9 | 0.00 | 0.03 | 0.00 | 85 | 1008.3 |
| 20260507020028 | 8 | 263 | 4.8 | 12.9 | 0.00 | 0.03 | 0.00 | 85 | 1008.3 |
| 20260507015928 | 8 | 254 | 6.4 | 12.9 | 0.00 | 0.03 | 0.00 | 85 | 1008.3 |
| 20260507015828 | 8 | 221 | 6.4 | 12.9 | 0.00 | 0.03 | 0.00 | 85 | 1008.4 |
| 20260507015728 | 8 | 224 | 6.4 | 12.9 | 0.00 | 0.03 | 0.00 | 85 | 1008.4 |
| 20260507015628 | 8 | 276 | 6.4 | 12.9 | 0.00 | 0.03 | 0.00 | 85 | 1008.4 |
| 20260507015528 | 8 | 278 | 6.4 | 12.9 | 0.00 | 0.03 | 0.00 | 85 | 1008.4 |
| 20260507015429 | 8 | 262 | 6.4 | 12.9 | 0.00 | 0.03 | 0.00 | 85 | 1008.4 |
| 20260507015329 | 8 | 240 | 6.4 | 12.9 | 0.00 | 0.03 | 0.00 | 85 | 1008.4 |
| 20260507015228 | 8 | 241 | 6.4 | 12.9 | 0.00 | 0.03 | 0.00 | 85 | 1008.6 |
| 20260507015128 | 8 | 286 | 6.4 | 12.9 | 0.00 | 0.03 | 0.00 | 85 | 1008.4 |
| 20260507015028 | 8 | 271 | 6.4 | 12.9 | 0.00 | 0.03 | 0.00 | 85 | 1008.4 |
| 20260507014928 | 8 | 279 | 6.4 | 12.9 | 0.00 | 0.03 | 0.00 | 85 | 1008.4 |
| 20260507014828 | 8 | 277 | 6.4 | 12.9 | 0.00 | 0.03 | 0.00 | 85 | 1008.4 |
| 20260507014729 | 8 | 274 | 4.8 | 12.9 | 0.00 | 0.03 | 0.00 | 85 | 1008.4 |
| 20260507014629 | 8 | 259 | 4.8 | 12.9 | 0.00 | 0.03 | 0.00 | 85 | 1008.4 |
| 20260507014529 | 8 | 247 | 6.4 | 12.9 | 0.00 | 0.03 | 0.00 | 85 | 1008.4 |
| 20260507014428 | 8 | 267 | 4.8 | 12.9 | 0.00 | 0.03 | 0.00 | 85 | 1008.4 |
| 20260507014329 | 8 | 231 | 4.8 | 12.9 | 0.00 | 0.03 | 0.00 | 85 | 1008.6 |
| 20260507014229 | 8 | 244 | 4.8 | 12.9 | 0.00 | 0.03 | 0.00 | 85 | 1008.4 |
| 20260507014129 | 8 | 263 | 4.8 | 12.9 | 0.00 | 0.03 | 0.00 | 85 | 1008.4 |
| 20260507014025 | 8 | 272 | 4.8 | 12.9 | 0.00 | 0.03 | 0.00 | 85 | 1008.4 |
| 20260507013923 | 8 | 272 | 4.8 | 12.9 | 0.00 | 0.03 | 0.00 | 85 | 1008.4 |
| 20260507013820 | 8 | 248 | 4.8 | 12.9 | 0.00 | 0.03 | 0.00 | 85 | 1008.4 |
| 20260507013720 | 8 | 255 | 6.4 | 12.9 | 0.00 | 0.03 | 0.00 | 85 | 1008.4 |
| 20260507013620 | 8 | 246 | 6.4 | 12.9 | 0.00 | 0.03 | 0.00 | 85 | 1008.6 |
| 20260507013514 | 8 | 267 | 6.4 | 12.9 | 0.00 | 0.03 | 0.00 | 85 | 1008.4 |
| 20260507013430 | 8 | 249 | 6.4 | 12.9 | 0.00 | 0.03 | 0.00 | 85 | 1008.4 |
| 20260507013415 | 8 | 275 | 6.4 | 12.9 | 0.00 | 0.03 | 0.00 | 85 | 1008.4 |
| 20260507013315 | 8 | 275 | 6.4 | 12.9 | 0.00 | 0.03 | 0.00 | 85 | 1008.6 |
| 20260507013215 | 8 | 265 | 6.4 | 12.9 | 0.00 | 0.03 | 0.00 | 85 | 1008.6 |
| 20260507013115 | 8 | 247 | 6.4 | 12.9 | 0.00 | 0.03 | 0.00 | 85 | 1008.6 |
| 20260507013015 | 8 | 269 | 6.4 | 12.9 | 0.00 | 0.03 | 0.00 | 85 | 1008.4 |
| 20260507012931 | 8 | 279 | 6.4 | 12.9 | 0.00 | 0.03 | 0.00 | 85 | 1008.4 |
| 20260507012912 | 8 | 267 | 6.4 | 12.9 | 0.00 | 0.03 | 0.00 | 85 | 1008.4 |
| 20260507012812 | 8 | 279 | 4.8 | 12.9 | 0.00 | 0.03 | 0.00 | 85 | 1008.4 |
| 20260507012713 | 8 | 261 | 4.8 | 12.9 | 0.00 | 0.03 | 0.00 | 85 | 1008.4 |
| 20260507012613 | 8 | 247 | 4.8 | 12.9 | 0.00 | 0.03 | 0.00 | 85 | 1008.4 |
| 20260507012513 | 8 | 263 | 4.8 | 12.9 | 0.00 | 0.03 | 0.00 | 85 | 1008.4 |
| 20260507012412 | 8 | 254 | 4.8 | 12.9 | 0.00 | 0.03 | 0.00 | 85 | 1008.4 |
| 20260507012312 | 8 | 246 | 4.8 | 11.3 | 0.00 | 0.03 | 0.00 | 85 | 1008.4 |
| 20260507012213 | 8 | 244 | 4.8 | 11.3 | 0.00 | 0.03 | 0.00 | 85 | 1008.3 |
| 20260507012112 | 8 | 242 | 4.8 | 11.3 | 0.00 | 0.03 | 0.00 | 85 | 1008.3 |
| 20260507012012 | 8 | 275 | 4.8 | 11.3 | 0.00 | 0.03 | 0.00 | 85 | 1008.4 |
| 20260507011913 | 8 | 214 | 4.8 | 11.3 | 0.00 | 0.03 | 0.00 | 85 | 1008.3 |
| 20260507011807 | 8 | 279 | 4.8 | 11.3 | 0.00 | 0.03 | 0.00 | 85 | 1008.3 |
| 20260507011707 | 8 | 266 | 4.8 | 11.3 | 0.00 | 0.03 | 0.00 | 85 | 1008.3 |
| 20260507011606 | 8 | 255 | 4.8 | 11.3 | 0.00 | 0.03 | 0.00 | 85 | 1008.3 |
| 20260507011506 | 8 | 236 | 4.8 | 11.3 | 0.00 | 0.03 | 0.00 | 85 | 1008.3 |
| 20260507011433 | 8 | 242 | 4.8 | 11.3 | 0.00 | 0.03 | 0.00 | 85 | 1008.4 |
| 20260507011407 | 8 | 252 | 4.8 | 11.3 | 0.00 | 0.03 | 0.00 | 85 | 1008.4 |
| 20260507011307 | 8 | 257 | 4.8 | 9.7 | 0.00 | 0.03 | 0.00 | 85 | 1008.3 |
| 20260507011207 | 8 | 265 | 4.8 | 9.7 | 0.00 | 0.03 | 0.00 | 85 | 1008.3 |
| 20260507011107 | 8 | 252 | 4.8 | 9.7 | 0.00 | 0.03 | 0.00 | 85 | 1008.3 |
| 20260507011006 | 8 | 258 | 4.8 | 9.7 | 0.00 | 0.03 | 0.00 | 85 | 1008.3 |
| 20260507010931 | 8 | 261 | 4.8 | 9.7 | 0.00 | 0.03 | 0.00 | 85 | 1008.3 |
| 20260507010907 | 8 | 249 | 4.8 | 9.7 | 0.00 | 0.03 | 0.00 | 85 | 1008.3 |
| 20260507010806 | 8 | 225 | 4.8 | 9.7 | 0.00 | 0.03 | 0.00 | 85 | 1008.3 |
| 20260507010706 | 8 | 248 | 4.8 | 9.7 | 0.00 | 0.03 | 0.00 | 85 | 1008.3 |
| 20260507010651 | 8 | 208 | 4.8 | 11.3 | 0.00 | 0.03 | 0.00 | 85 | 1008.2 |
| 20260507010645 | 8 | 263 | 4.8 | 9.7 | 0.00 | 0.03 | 0.00 | 85 | 1008.3 |
| 20260507010641 | 8 | 217 | 4.8 | 11.3 | 0.00 | 0.03 | 0.00 | 85 | 1008.3 |
| 20260507010403 | 8 | 250 | 4.8 | 11.3 | 0.00 | 0.03 | 0.00 | 85 | 1008.2 |
| 20260507010303 | 8 | 241 | 4.8 | 11.3 | 0.00 | 0.03 | 0.00 | 85 | 1008.3 |
| 20260507010203 | 8 | 221 | 4.8 | 11.3 | 0.00 | 0.03 | 0.00 | 85 | 1008.3 |
| 20260507010002 | 8 | 252 | 4.8 | 11.3 | 0.00 | 0.03 | 0.00 | 85 | 1008.3 |
| 20260507005902 | 8 | 234 | 4.8 | 11.3 | 0.00 | 0.03 | 0.00 | 85 | 1008.3 |
| 20260507005803 | 8 | 241 | 4.8 | 11.3 | 0.00 | 0.03 | 0.00 | 85 | 1008.3 |
| 20260507005703 | 8 | 258 | 4.8 | 11.3 | 0.00 | 0.03 | 0.00 | 85 | 1008.3 |
| 20260507005603 | 8 | 240 | 4.8 | 11.3 | 0.00 | 0.03 | 0.00 | 85 | 1008.3 |
| 20260507005502 | 8 | 254 | 4.8 | 9.7 | 0.00 | 0.03 | 0.00 | 85 | 1008.3 |
| 20260507005429 | 8 | 228 | 4.8 | 9.7 | 0.00 | 0.03 | 0.00 | 84 | 1008.3 |
| 20260507005400 | 8 | 237 | 4.8 | 9.7 | 0.00 | 0.03 | 0.00 | 84 | 1008.3 |
| 20260507005301 | 8 | 280 | 4.8 | 9.7 | 0.00 | 0.03 | 0.00 | 84 | 1008.3 |
| 20260507005201 | 8 | 246 | 4.8 | 9.7 | 0.00 | 0.03 | 0.00 | 84 | 1008.3 |
| 20260507005101 | 8 | 235 | 4.8 | 9.7 | 0.00 | 0.03 | 0.00 | 84 | 1008.3 |
| 20260507005001 | 8 | 245 | 4.8 | 9.7 | 0.00 | 0.03 | 0.00 | 84 | 1008.3 |
| 20260507004928 | 8 | 214 | 4.8 | 9.7 | 0.00 | 0.03 | 0.00 | 84 | 1008.3 |
| 20260507004901 | 8 | 236 | 4.8 | 9.7 | 0.00 | 0.03 | 0.00 | 84 | 1008.3 |
| 20260507004801 | 8 | 236 | 4.8 | 9.7 | 0.00 | 0.03 | 0.00 | 84 | 1008.4 |
| 20260507004700 | 8 | 267 | 4.8 | 11.3 | 0.00 | 0.03 | 0.00 | 84 | 1008.4 |
| 20260507004600 | 8 | 247 | 4.8 | 11.3 | 0.00 | 0.03 | 0.00 | 84 | 1008.3 |
| 20260507004500 | 8 | 221 | 4.8 | 11.3 | 0.00 | 0.03 | 0.00 | 84 | 1008.3 |
| 20260507004430 | 8 | 220 | 4.8 | 11.3 | 0.00 | 0.03 | 0.00 | 84 | 1008.3 |
| 20260507004401 | 8 | 232 | 4.8 | 11.3 | 0.00 | 0.03 | 0.00 | 84 | 1008.3 |
| 20260507004301 | 8 | 233 | 4.8 | 11.3 | 0.00 | 0.03 | 0.00 | 84 | 1008.3 |
| 20260507004201 | 8 | 229 | 4.8 | 11.3 | 0.00 | 0.03 | 0.00 | 84 | 1008.2 |
| 20260507004100 | 8 | 242 | 4.8 | 12.9 | 0.00 | 0.03 | 0.00 | 84 | 1008.2 |
| 20260507004000 | 8 | 213 | 4.8 | 12.9 | 0.00 | 0.03 | 0.00 | 84 | 1008.3 |
| 20260507003929 | 8 | 232 | 6.4 | 12.9 | 0.00 | 0.03 | 0.00 | 84 | 1008.2 |
| 20260507003900 | 8 | 252 | 6.4 | 12.9 | 0.00 | 0.03 | 0.00 | 84 | 1008.2 |
| 20260507003801 | 8 | 269 | 6.4 | 12.9 | 0.00 | 0.03 | 0.00 | 84 | 1008.2 |
| 20260507003701 | 8 | 226 | 6.4 | 12.9 | 0.00 | 0.03 | 0.00 | 84 | 1008.2 |
| 20260507003601 | 8 | 234 | 6.4 | 14.5 | 0.00 | 0.03 | 0.00 | 84 | 1008.2 |
| 20260507003501 | 8 | 275 | 6.4 | 14.5 | 0.00 | 0.03 | 0.00 | 84 | 1008.2 |
| 20260507003428 | 8 | 274 | 6.4 | 14.5 | 0.00 | 0.03 | 0.00 | 84 | 1008.2 |
| 20260507003401 | 8 | 263 | 6.4 | 14.5 | 0.00 | 0.03 | 0.00 | 84 | 1008.2 |
| 20260507003300 | 8 | 271 | 6.4 | 14.5 | 0.00 | 0.03 | 0.00 | 84 | 1008.3 |
| 20260507003200 | 8 | 264 | 6.4 | 14.5 | 0.00 | 0.03 | 0.00 | 84 | 1008.3 |
| 20260507003100 | 8 | 261 | 6.4 | 14.5 | 0.00 | 0.03 | 0.00 | 84 | 1008.3 |
| 20260507003000 | 8 | 245 | 4.8 | 14.5 | 0.00 | 0.03 | 0.00 | 84 | 1008.3 |
| 20260507002929 | 8 | 261 | 4.8 | 14.5 | 0.00 | 0.03 | 0.00 | 83 | 1008.3 |
| 20260507002900 | 8 | 255 | 4.8 | 14.5 | 0.00 | 0.03 | 0.00 | 83 | 1008.3 |
| 20260507002800 | 8 | 251 | 4.8 | 14.5 | 0.00 | 0.03 | 0.00 | 83 | 1008.3 |
| 20260507002700 | 8 | 263 | 4.8 | 14.5 | 0.00 | 0.03 | 0.00 | 83 | 1008.4 |
| 20260507002601 | 8 | 273 | 4.8 | 11.3 | 0.00 | 0.03 | 0.00 | 83 | 1008.3 |
| 20260507002501 | 8 | 234 | 4.8 | 11.3 | 0.00 | 0.03 | 0.00 | 83 | 1008.3 |
| 20260507002406 | 8 | 265 | 4.8 | 11.3 | 0.00 | 0.03 | 0.00 | 83 | 1008.3 |
| 20260507002300 | 8 | 235 | 4.8 | 11.3 | 0.00 | 0.03 | 0.00 | 83 | 1008.3 |
| 20260507002201 | 8 | 247 | 4.8 | 11.3 | 0.00 | 0.03 | 0.00 | 83 | 1008.3 |
| 20260507002101 | 8 | 248 | 4.8 | 11.3 | 0.00 | 0.03 | 0.00 | 83 | 1008.3 |
| 20260507002001 | 8 | 244 | 6.4 | 11.3 | 0.00 | 0.03 | 0.00 | 83 | 1008.3 |
| 20260507001929 | 8 | 233 | 4.8 | 11.3 | 0.00 | 0.03 | 0.00 | 83 | 1008.2 |
| 20260507001902 | 8 | 263 | 4.8 | 11.3 | 0.00 | 0.03 | 0.00 | 83 | 1008.2 |
| 20260507001800 | 8 | 275 | 4.8 | 11.3 | 0.00 | 0.03 | 0.00 | 83 | 1008.3 |
| 20260507001700 | 8 | 265 | 4.8 | 11.3 | 0.00 | 0.03 | 0.00 | 83 | 1008.2 |
| 20260507001600 | 8 | 271 | 4.8 | 11.3 | 0.00 | 0.03 | 0.00 | 83 | 1008.3 |
| 20260507001501 | 8 | 247 | 4.8 | 11.3 | 0.00 | 0.03 | 0.00 | 83 | 1008.3 |
| 20260507001429 | 8 | 245 | 4.8 | 11.3 | 0.00 | 0.03 | 0.00 | 83 | 1008.3 |
| 20260507001401 | 8 | 249 | 4.8 | 11.3 | 0.00 | 0.03 | 0.00 | 83 | 1008.3 |
| 20260507001301 | 8 | 250 | 4.8 | 9.7 | 0.00 | 0.03 | 0.00 | 83 | 1008.3 |
| 20260507001201 | 8 | 219 | 4.8 | 9.7 | 0.00 | 0.03 | 0.00 | 83 | 1008.2 |
| 20260507001101 | 8 | 261 | 4.8 | 9.7 | 0.00 | 0.03 | 0.00 | 83 | 1008.3 |
| 20260507001000 | 8 | 265 | 4.8 | 9.7 | 0.00 | 0.03 | 0.00 | 83 | 1008.3 |
| 20260507000929 | 8 | 286 | 4.8 | 9.7 | 0.00 | 0.03 | 0.00 | 83 | 1008.3 |
| 20260507000901 | 8 | 281 | 4.8 | 9.7 | 0.00 | 0.03 | 0.00 | 83 | 1008.3 |
| 20260507000800 | 8 | 248 | 4.8 | 8.0 | 0.00 | 0.03 | 0.00 | 83 | 1008.3 |
| 20260507000700 | 8 | 245 | 3.2 | 8.0 | 0.00 | 0.03 | 0.00 | 83 | 1008.4 |
| 20260507000600 | 8 | 233 | 4.8 | 8.0 | 0.00 | 0.03 | 0.00 | 83 | 1008.4 |
| 20260507000500 | 8 | 264 | 4.8 | 8.0 | 0.00 | 0.03 | 0.00 | 83 | 1008.4 |
| 20260507000428 | 8 | 259 | 3.2 | 8.0 | 0.00 | 0.03 | 0.00 | 83 | 1008.3 |
| 20260507000401 | 8 | 265 | 3.2 | 8.0 | 0.00 | 0.03 | 0.00 | 83 | 1008.3 |
| 20260507000300 | 8 | 248 | 4.8 | 9.7 | 0.00 | 0.03 | 0.00 | 83 | 1008.3 |
| 20260507000201 | 8 | 248 | 4.8 | 9.7 | 0.00 | 0.03 | 0.00 | 83 | 1008.3 |
| 20260507000101 | 8 | 232 | 4.8 | 11.3 | 0.00 | 0.03 | 0.00 | 83 | 1008.3 |
| 20260507000001 | 8 | 224 | 4.8 | 11.3 | 0.00 | 0.03 | 0.00 | 83 | 1008.3 |
| 20260506235901 | 8 | 235 | 4.8 | 11.3 | 0.00 | 0.03 | 0.00 | 83 | 1008.4 |
| 20260506235800 | 8 | 229 | 4.8 | 11.3 | 0.00 | 0.03 | 0.00 | 83 | 1008.3 |
| 20260506235700 | 9 | 229 | 4.8 | 12.9 | 0.00 | 0.03 | 0.00 | 83 | 1008.3 |
| 20260506235600 | 9 | 258 | 4.8 | 12.9 | 0.00 | 0.03 | 0.00 | 83 | 1008.3 |
| 20260506235501 | 9 | 242 | 4.8 | 12.9 | 0.00 | 0.03 | 0.00 | 83 | 1008.3 |
| 20260506235428 | 9 | 242 | 6.4 | 12.9 | 0.00 | 0.03 | 0.00 | 83 | 1008.3 |
| 20260506235402 | 9 | 265 | 6.4 | 12.9 | 0.00 | 0.03 | 0.00 | 83 | 1008.3 |
| 20260506235300 | 9 | 265 | 6.4 | 12.9 | 0.00 | 0.03 | 0.00 | 83 | 1008.4 |
| 20260506235200 | 9 | 265 | 6.4 | 12.9 | 0.00 | 0.03 | 0.00 | 83 | 1008.4 |
| 20260506235100 | 9 | 296 | 6.4 | 12.9 | 0.00 | 0.03 | 0.00 | 83 | 1008.4 |
| 20260506235000 | 9 | 275 | 6.4 | 14.5 | 0.00 | 0.03 | 0.00 | 83 | 1008.4 |
| 20260506234929 | 9 | 277 | 6.4 | 14.5 | 0.00 | 0.03 | 0.00 | 83 | 1008.4 |
| 20260506234801 | 9 | 239 | 6.4 | 14.5 | 0.00 | 0.03 | 0.00 | 83 | 1008.4 |
| 20260506234700 | 9 | 256 | 6.4 | 16.1 | 0.00 | 0.03 | 0.00 | 83 | 1008.4 |
| 20260506234654 | 9 | 273 | 6.4 | 16.1 | 0.00 | 0.03 | 0.00 | 83 | 1008.4 |
| 20260506234644 | 9 | 263 | 6.4 | 16.1 | 0.00 | 0.03 | 0.00 | 83 | 1008.4 |
| 20260506234640 | 9 | 265 | 6.4 | 16.1 | 0.00 | 0.03 | 0.00 | 83 | 1008.4 |
| 20260506234401 | 9 | 253 | 6.4 | 16.1 | 0.00 | 0.03 | 0.00 | 83 | 1008.4 |
| 20260506234300 | 9 | 245 | 6.4 | 16.1 | 0.00 | 0.03 | 0.00 | 83 | 1008.4 |
| 20260506234200 | 9 | 225 | 6.4 | 16.1 | 0.00 | 0.03 | 0.00 | 83 | 1008.4 |
| 20260506234100 | 9 | 266 | 6.4 | 16.1 | 0.00 | 0.03 | 0.00 | 83 | 1008.4 |
| 20260506234000 | 9 | 277 | 6.4 | 16.1 | 0.00 | 0.03 | 0.00 | 83 | 1008.4 |
| 20260506233929 | 9 | 241 | 6.4 | 16.1 | 0.00 | 0.03 | 0.00 | 83 | 1008.4 |
| 20260506233901 | 9 | 281 | 6.4 | 16.1 | 0.00 | 0.03 | 0.00 | 83 | 1008.4 |
| 20260506233801 | 9 | 269 | 6.4 | 16.1 | 0.00 | 0.03 | 0.00 | 83 | 1008.4 |
| 20260506233701 | 9 | 300 | 6.4 | 14.5 | 0.00 | 0.03 | 0.00 | 83 | 1008.3 |
| 20260506233655 | 9 | 269 | 6.4 | 14.5 | 0.00 | 0.03 | 0.00 | 83 | 1008.3 |
| 20260506233644 | 9 | 235 | 6.4 | 14.5 | 0.00 | 0.03 | 0.00 | 83 | 1008.3 |
| 20260506233640 | 9 | 268 | 6.4 | 14.5 | 0.00 | 0.03 | 0.00 | 83 | 1008.3 |
| 20260506233401 | 9 | 261 | 6.4 | 14.5 | 0.00 | 0.03 | 0.00 | 83 | 1008.3 |
| 20260506233300 | 9 | 277 | 6.4 | 14.5 | 0.00 | 0.03 | 0.00 | 83 | 1008.3 |
| 20260506233200 | 9 | 284 | 6.4 | 14.5 | 0.00 | 0.03 | 0.00 | 83 | 1008.4 |
| 20260506233100 | 9 | 271 | 6.4 | 14.5 | 0.00 | 0.03 | 0.00 | 83 | 1008.4 |
| 20260506233001 | 9 | 252 | 8.0 | 14.5 | 0.00 | 0.03 | 0.00 | 83 | 1008.4 |
| 20260506232928 | 9 | 262 | 8.0 | 14.5 | 0.00 | 0.03 | 0.00 | 83 | 1008.4 |
| 20260506232901 | 9 | 273 | 8.0 | 14.5 | 0.00 | 0.03 | 0.00 | 83 | 1008.4 |
| 20260506232801 | 9 | 267 | 8.0 | 14.5 | 0.00 | 0.03 | 0.00 | 83 | 1008.4 |
| 20260506232700 | 9 | 213 | 8.0 | 14.5 | 0.00 | 0.03 | 0.00 | 83 | 1008.4 |
| 20260506232653 | 9 | 272 | 8.0 | 14.5 | 0.00 | 0.03 | 0.00 | 83 | 1008.3 |
| 20260506232644 | 9 | 223 | 8.0 | 14.5 | 0.00 | 0.03 | 0.00 | 83 | 1008.3 |
| 20260506232640 | 9 | 275 | 8.0 | 14.5 | 0.00 | 0.03 | 0.00 | 83 | 1008.4 |
| 20260506232401 | 9 | 275 | 8.0 | 14.5 | 0.00 | 0.03 | 0.00 | 83 | 1008.3 |
| 20260506232301 | 9 | 252 | 8.0 | 14.5 | 0.00 | 0.03 | 0.00 | 83 | 1008.4 |
| 20260506232201 | 9 | 269 | 8.0 | 14.5 | 0.00 | 0.03 | 0.00 | 83 | 1008.4 |
| 20260506232101 | 9 | 246 | 8.0 | 14.5 | 0.00 | 0.03 | 0.00 | 83 | 1008.4 |
| 20260506232001 | 9 | 257 | 8.0 | 14.5 | 0.00 | 0.03 | 0.00 | 83 | 1008.3 |
| 20260506231929 | 9 | 236 | 8.0 | 14.5 | 0.00 | 0.03 | 0.00 | 83 | 1008.3 |
| 20260506231901 | 9 | 247 | 8.0 | 14.5 | 0.00 | 0.03 | 0.00 | 83 | 1008.3 |
| 20260506231801 | 9 | 220 | 8.0 | 14.5 | 0.00 | 0.03 | 0.00 | 83 | 1008.3 |
| 20260506231701 | 9 | 275 | 8.0 | 14.5 | 0.00 | 0.03 | 0.00 | 83 | 1008.2 |
| 20260506231601 | 9 | 229 | 8.0 | 14.5 | 0.00 | 0.03 | 0.00 | 83 | 1008.3 |
| 20260506231501 | 9 | 251 | 8.0 | 14.5 | 0.00 | 0.03 | 0.00 | 83 | 1008.3 |
| 20260506231429 | 9 | 241 | 8.0 | 14.5 | 0.00 | 0.03 | 0.00 | 83 | 1008.3 |
| 20260506231401 | 9 | 253 | 8.0 | 14.5 | 0.00 | 0.03 | 0.00 | 83 | 1008.3 |
| 20260506231301 | 9 | 254 | 8.0 | 14.5 | 0.00 | 0.03 | 0.00 | 82 | 1008.3 |
| 20260506231201 | 9 | 295 | 6.4 | 14.5 | 0.00 | 0.03 | 0.00 | 82 | 1008.2 |
| 20260506231101 | 9 | 261 | 8.0 | 14.5 | 0.00 | 0.03 | 0.00 | 82 | 1008.2 |
| 20260506231001 | 9 | 214 | 8.0 | 14.5 | 0.00 | 0.03 | 0.00 | 82 | 1008.1 |
| 20260506230901 | 9 | 213 | 8.0 | 14.5 | 0.00 | 0.03 | 0.00 | 82 | 1008.2 |
| 20260506230801 | 9 | 229 | 8.0 | 14.5 | 0.00 | 0.03 | 0.00 | 82 | 1008.2 |
| 20260506230701 | 9 | 242 | 8.0 | 14.5 | 0.00 | 0.03 | 0.00 | 82 | 1008.1 |
| 20260506230600 | 9 | 212 | 8.0 | 14.5 | 0.00 | 0.03 | 0.00 | 82 | 1008.2 |
| 20260506230500 | 9 | 242 | 8.0 | 14.5 | 0.00 | 0.03 | 0.00 | 82 | 1008.2 |
| 20260506230429 | 9 | 219 | 8.0 | 14.5 | 0.00 | 0.03 | 0.00 | 82 | 1008.2 |
| 20260506230400 | 9 | 261 | 8.0 | 14.5 | 0.00 | 0.03 | 0.00 | 82 | 1008.2 |
| 20260506230300 | 9 | 252 | 8.0 | 16.1 | 0.00 | 0.03 | 0.00 | 82 | 1008.1 |
| 20260506230156 | 9 | 252 | 8.0 | 16.1 | 0.00 | 0.03 | 0.00 | 82 | 1008.1 |
| 20260506230057 | 9 | 240 | 8.0 | 16.1 | 0.00 | 0.03 | 0.00 | 82 | 1008.1 |
| 20260506225954 | 9 | 229 | 8.0 | 16.1 | 0.00 | 0.03 | 0.00 | 82 | 1008.1 |
| 20260506225929 | 9 | 241 | 8.0 | 16.1 | 0.00 | 0.03 | 0.00 | 82 | 1008.1 |
| 20260506225854 | 9 | 259 | 8.0 | 16.1 | 0.00 | 0.03 | 0.00 | 82 | 1008.1 |
| 20260506225754 | 9 | 265 | 8.0 | 16.1 | 0.00 | 0.03 | 0.00 | 82 | 1008.1 |
| 20260506225649 | 9 | 274 | 8.0 | 16.1 | 0.00 | 0.03 | 0.00 | 82 | 1008.1 |
| 20260506225549 | 9 | 284 | 8.0 | 16.1 | 0.00 | 0.03 | 0.00 | 82 | 1008.1 |
| 20260506225448 | 9 | 228 | 8.0 | 16.1 | 0.00 | 0.03 | 0.00 | 82 | 1008.1 |
| 20260506225429 | 9 | 257 | 8.0 | 16.1 | 0.00 | 0.03 | 0.00 | 82 | 1008.1 |
| 20260506225348 | 9 | 250 | 8.0 | 16.1 | 0.00 | 0.03 | 0.00 | 82 | 1008.1 |
| 20260506225248 | 9 | 281 | 8.0 | 16.1 | 0.00 | 0.03 | 0.00 | 82 | 1008.1 |
| 20260506225142 | 9 | 227 | 6.4 | 16.1 | 0.00 | 0.03 | 0.00 | 82 | 1008.1 |
| 20260506225042 | 9 | 263 | 6.4 | 16.1 | 0.00 | 0.03 | 0.00 | 82 | 1008.1 |
| 20260506224943 | 9 | 269 | 6.4 | 16.1 | 0.00 | 0.03 | 0.00 | 82 | 1008.1 |
| 20260506224929 | 9 | 255 | 6.4 | 16.1 | 0.00 | 0.03 | 0.00 | 82 | 1008.1 |
| 20260506224842 | 9 | 246 | 8.0 | 16.1 | 0.00 | 0.03 | 0.00 | 82 | 1008.1 |
| 20260506224741 | 9 | 236 | 6.4 | 17.7 | 0.00 | 0.03 | 0.00 | 82 | 1008.2 |
| 20260506224636 | 9 | 275 | 6.4 | 17.7 | 0.00 | 0.03 | 0.00 | 82 | 1008.1 |
| 20260506224536 | 9 | 260 | 6.4 | 17.7 | 0.00 | 0.03 | 0.00 | 82 | 1008.1 |
| 20260506224436 | 9 | 263 | 6.4 | 17.7 | 0.00 | 0.03 | 0.00 | 81 | 1008.1 |
| 20260506224429 | 9 | 271 | 6.4 | 17.7 | 0.00 | 0.03 | 0.00 | 81 | 1008.1 |
| 20260506224336 | 9 | 238 | 6.4 | 17.7 | 0.00 | 0.03 | 0.00 | 81 | 1008.1 |
| 20260506224236 | 9 | 255 | 6.4 | 17.7 | 0.00 | 0.03 | 0.00 | 81 | 1008.1 |
| 20260506224134 | 9 | 231 | 8.0 | 17.7 | 0.00 | 0.03 | 0.00 | 81 | 1008.0 |
| 20260506224034 | 9 | 271 | 8.0 | 19.3 | 0.00 | 0.03 | 0.00 | 81 | 1008.1 |
| 20260506223934 | 9 | 246 | 8.0 | 19.3 | 0.00 | 0.03 | 0.00 | 81 | 1008.1 |
| 20260506223929 | 9 | 232 | 8.0 | 19.3 | 0.00 | 0.03 | 0.00 | 81 | 1008.1 |
| 20260506223834 | 9 | 242 | 8.0 | 19.3 | 0.00 | 0.03 | 0.00 | 81 | 1008.1 |
| 20260506223733 | 9 | 262 | 8.0 | 19.3 | 0.00 | 0.03 | 0.00 | 81 | 1008.1 |
| 20260506223633 | 9 | 273 | 8.0 | 19.3 | 0.00 | 0.03 | 0.00 | 81 | 1008.1 |
| 20260506223532 | 9 | 263 | 8.0 | 19.3 | 0.00 | 0.03 | 0.00 | 81 | 1008.1 |
| 20260506223432 | 9 | 259 | 8.0 | 19.3 | 0.00 | 0.03 | 0.00 | 81 | 1008.0 |
| 20260506223428 | 9 | 258 | 8.0 | 19.3 | 0.00 | 0.03 | 0.00 | 81 | 1008.0 |
| 20260506223332 | 9 | 242 | 8.0 | 22.5 | 0.00 | 0.03 | 0.00 | 81 | 1008.0 |
| 20260506223232 | 9 | 269 | 9.7 | 22.5 | 0.00 | 0.03 | 0.00 | 81 | 1008.1 |
| 20260506223130 | 9 | 219 | 9.7 | 22.5 | 0.00 | 0.03 | 0.00 | 81 | 1008.1 |
| 20260506223030 | 9 | 236 | 9.7 | 22.5 | 0.00 | 0.03 | 0.00 | 81 | 1008.1 |
| 20260506222933 | 9 | 263 | 9.7 | 22.5 | 0.00 | 0.03 | 0.00 | 81 | 1008.1 |
| 20260506222929 | 9 | 247 | 9.7 | 22.5 | 0.00 | 0.03 | 0.00 | 81 | 1008.1 |
| 20260506222830 | 9 | 279 | 9.7 | 22.5 | 0.00 | 0.03 | 0.00 | 81 | 1008.0 |
| 20260506222730 | 9 | 241 | 9.7 | 22.5 | 0.00 | 0.03 | 0.00 | 81 | 1008.1 |
| 20260506222648 | 9 | 274 | 9.7 | 22.5 | 0.00 | 0.03 | 0.00 | 81 | 1008.0 |
| 20260506222644 | 9 | 265 | 11.3 | 22.5 | 0.00 | 0.03 | 0.00 | 81 | 1008.1 |
| 20260506222640 | 9 | 221 | 9.7 | 22.5 | 0.00 | 0.03 | 0.00 | 81 | 1008.2 |
| 20260506222330 | 9 | 238 | 9.7 | 20.9 | 0.00 | 0.03 | 0.00 | 81 | 1008.1 |
| 20260506222230 | 9 | 235 | 9.7 | 19.3 | 0.00 | 0.03 | 0.00 | 81 | 1008.1 |
| 20260506222130 | 9 | 246 | 9.7 | 19.3 | 0.00 | 0.03 | 0.00 | 81 | 1008.2 |
| 20260506222029 | 9 | 232 | 9.7 | 19.3 | 0.00 | 0.03 | 0.00 | 81 | 1008.1 |
| 20260506221928 | 9 | 268 | 9.7 | 19.3 | 0.00 | 0.03 | 0.00 | 81 | 1008.1 |
| 20260506221829 | 9 | 273 | 9.7 | 19.3 | 0.00 | 0.03 | 0.00 | 81 | 1008.1 |
| 20260506221729 | 9 | 236 | 9.7 | 19.3 | 0.00 | 0.03 | 0.00 | 81 | 1008.1 |
| 20260506221629 | 9 | 223 | 9.7 | 19.3 | 0.00 | 0.03 | 0.00 | 81 | 1008.1 |
| 20260506221529 | 9 | 252 | 9.7 | 20.9 | 0.00 | 0.03 | 0.00 | 81 | 1008.1 |
| 20260506221430 | 9 | 259 | 9.7 | 25.7 | 0.00 | 0.03 | 0.00 | 81 | 1008.0 |
| 20260506221329 | 9 | 278 | 11.3 | 25.7 | 0.00 | 0.03 | 0.00 | 81 | 1008.0 |
| 20260506221228 | 9 | 215 | 11.3 | 25.7 | 0.00 | 0.03 | 0.00 | 81 | 1008.0 |
| 20260506221129 | 9 | 219 | 9.7 | 25.7 | 0.00 | 0.03 | 0.00 | 81 | 1008.0 |
| 20260506221029 | 9 | 226 | 9.7 | 25.7 | 0.00 | 0.03 | 0.00 | 81 | 1008.0 |
| 20260506220929 | 9 | 259 | 9.7 | 25.7 | 0.00 | 0.03 | 0.00 | 81 | 1008.0 |
| 20260506220829 | 9 | 246 | 9.7 | 25.7 | 0.00 | 0.03 | 0.00 | 81 | 1008.0 |
| 20260506220728 | 9 | 261 | 9.7 | 25.7 | 0.00 | 0.03 | 0.00 | 81 | 1008.0 |
| 20260506220628 | 9 | 248 | 9.7 | 25.7 | 0.00 | 0.03 | 0.00 | 81 | 1008.1 |
| 20260506220528 | 9 | 259 | 8.0 | 25.7 | 0.00 | 0.03 | 0.00 | 81 | 1008.1 |
| 20260506220428 | 9 | 260 | 8.0 | 17.7 | 0.00 | 0.03 | 0.00 | 81 | 1007.9 |
| 20260506220329 | 9 | 222 | 8.0 | 17.7 | 0.00 | 0.03 | 0.00 | 81 | 1007.9 |
| 20260506220228 | 9 | 262 | 8.0 | 17.7 | 0.00 | 0.03 | 0.00 | 81 | 1007.9 |
| 20260506220128 | 9 | 252 | 9.7 | 17.7 | 0.00 | 0.03 | 0.00 | 82 | 1007.9 |
| 20260506220028 | 9 | 254 | 9.7 | 17.7 | 0.00 | 0.03 | 0.00 | 81 | 1007.9 |
| 20260506215929 | 9 | 219 | 9.7 | 17.7 | 0.00 | 0.03 | 0.03 | 82 | 1007.9 |
| 20260506215829 | 9 | 238 | 9.7 | 17.7 | 0.00 | 0.03 | 0.03 | 82 | 1007.9 |
| 20260506215729 | 9 | 250 | 9.7 | 17.7 | 0.00 | 0.03 | 0.03 | 81 | 1007.9 |
| 20260506215629 | 9 | 217 | 8.0 | 17.7 | 0.00 | 0.03 | 0.03 | 82 | 1007.9 |
| 20260506215529 | 9 | 280 | 8.0 | 17.7 | 0.00 | 0.03 | 0.03 | 82 | 1007.8 |
| 20260506215429 | 9 | 255 | 8.0 | 17.7 | 0.00 | 0.03 | 0.03 | 82 | 1007.8 |
| 20260506215329 | 9 | 242 | 8.0 | 16.1 | 0.00 | 0.03 | 0.03 | 82 | 1007.8 |
| 20260506215229 | 9 | 196 | 8.0 | 16.1 | 0.00 | 0.03 | 0.03 | 82 | 1007.8 |
| 20260506215148 | 9 | 292 | 8.0 | 14.5 | 0.00 | 0.03 | 0.03 | 82 | 1007.9 |
| 20260506215144 | 9 | 264 | 8.0 | 14.5 | 0.00 | 0.03 | 0.03 | 82 | 1007.8 |
| 20260506215140 | 9 | 269 | 8.0 | 16.1 | 0.00 | 0.03 | 0.03 | 82 | 1007.8 |
| 20260506214829 | 9 | 250 | 8.0 | 16.1 | 0.00 | 0.03 | 0.03 | 82 | 1007.8 |
| 20260506214729 | 9 | 258 | 8.0 | 16.1 | 0.00 | 0.03 | 0.03 | 82 | 1007.8 |
| 20260506214628 | 9 | 212 | 8.0 | 16.1 | 0.00 | 0.03 | 0.03 | 82 | 1007.8 |
| 20260506214528 | 9 | 266 | 8.0 | 17.7 | 0.00 | 0.03 | 0.03 | 82 | 1007.8 |
| 20260506214429 | 9 | 244 | 8.0 | 17.7 | 0.00 | 0.03 | 0.03 | 82 | 1007.8 |
| 20260506214329 | 9 | 274 | 8.0 | 17.7 | 0.00 | 0.03 | 0.03 | 82 | 1007.8 |
| 20260506214229 | 9 | 225 | 8.0 | 17.7 | 0.00 | 0.03 | 0.03 | 82 | 1007.8 |
| 20260506214129 | 9 | 228 | 9.7 | 17.7 | 0.00 | 0.03 | 0.03 | 82 | 1007.8 |
| 20260506214029 | 9 | 240 | 9.7 | 17.7 | 0.00 | 0.03 | 0.03 | 82 | 1007.7 |
| 20260506213929 | 9 | 257 | 9.7 | 17.7 | 0.00 | 0.03 | 0.03 | 82 | 1007.8 |
| 20260506213829 | 9 | 261 | 9.7 | 17.7 | 0.00 | 0.03 | 0.03 | 82 | 1007.7 |
| 20260506213728 | 9 | 288 | 9.7 | 17.7 | 0.00 | 0.03 | 0.03 | 82 | 1007.7 |
| 20260506213628 | 9 | 230 | 9.7 | 19.3 | 0.00 | 0.03 | 0.03 | 82 | 1007.8 |
| 20260506213528 | 9 | 221 | 9.7 | 19.3 | 0.00 | 0.03 | 0.03 | 82 | 1007.8 |
| 20260506213428 | 9 | 234 | 9.7 | 19.3 | 0.00 | 0.03 | 0.03 | 82 | 1007.7 |
| 20260506213330 | 9 | 226 | 9.7 | 19.3 | 0.00 | 0.03 | 0.03 | 82 | 1007.7 |
| 20260506213229 | 9 | 279 | 9.7 | 19.3 | 0.00 | 0.03 | 0.03 | 82 | 1007.7 |
| 20260506213129 | 9 | 240 | 9.7 | 19.3 | 0.00 | 0.03 | 0.03 | 82 | 1007.8 |
| 20260506213029 | 9 | 226 | 9.7 | 19.3 | 0.00 | 0.03 | 0.03 | 82 | 1007.7 |
| 20260506212928 | 9 | 259 | 9.7 | 19.3 | 0.00 | 0.03 | 0.03 | 82 | 1007.7 |
| 20260506212829 | 9 | 233 | 9.7 | 20.9 | 0.00 | 0.03 | 0.03 | 82 | 1007.7 |
| 20260506212729 | 9 | 267 | 8.0 | 20.9 | 0.00 | 0.03 | 0.03 | 82 | 1007.7 |
| 20260506212629 | 9 | 243 | 8.0 | 20.9 | 0.00 | 0.03 | 0.03 | 82 | 1007.7 |
| 20260506212529 | 9 | 220 | 8.0 | 20.9 | 0.00 | 0.03 | 0.03 | 82 | 1007.7 |
| 20260506212429 | 9 | 259 | 8.0 | 20.9 | 0.00 | 0.03 | 0.03 | 82 | 1007.7 |
| 20260506212329 | 9 | 248 | 8.0 | 20.9 | 0.00 | 0.03 | 0.03 | 82 | 1007.7 |
| 20260506212229 | 9 | 218 | 8.0 | 20.9 | 0.00 | 0.03 | 0.03 | 82 | 1007.6 |
| 20260506212129 | 9 | 240 | 8.0 | 20.9 | 0.00 | 0.03 | 0.03 | 82 | 1007.6 |
| 20260506212029 | 9 | 265 | 8.0 | 20.9 | 0.00 | 0.03 | 0.03 | 82 | 1007.7 |
| 20260506211930 | 9 | 270 | 8.0 | 20.9 | 0.00 | 0.03 | 0.03 | 82 | 1007.8 |
| 20260506211829 | 9 | 264 | 8.0 | 17.7 | 0.00 | 0.03 | 0.03 | 82 | 1007.7 |
| 20260506211733 | 9 | 268 | 8.0 | 17.7 | 0.00 | 0.03 | 0.03 | 82 | 1007.8 |
| 20260506211629 | 9 | 267 | 8.0 | 17.7 | 0.00 | 0.03 | 0.03 | 82 | 1007.7 |
| 20260506211529 | 9 | 224 | 8.0 | 17.7 | 0.00 | 0.03 | 0.03 | 82 | 1007.7 |
| 20260506211429 | 9 | 256 | 8.0 | 17.7 | 0.00 | 0.03 | 0.03 | 82 | 1007.7 |
| 20260506211329 | 9 | 254 | 8.0 | 17.7 | 0.00 | 0.03 | 0.03 | 82 | 1007.7 |
| 20260506211230 | 9 | 257 | 8.0 | 17.7 | 0.00 | 0.03 | 0.03 | 82 | 1007.7 |
| 20260506211029 | 9 | 232 | 8.0 | 16.1 | 0.00 | 0.03 | 0.03 | 82 | 1007.7 |
| 20260506210929 | 9 | 235 | 6.4 | 16.1 | 0.00 | 0.03 | 0.03 | 82 | 1007.8 |
| 20260506210829 | 9 | 254 | 8.0 | 16.1 | 0.00 | 0.03 | 0.03 | 82 | 1007.8 |
| 20260506210729 | 9 | 254 | 8.0 | 16.1 | 0.00 | 0.03 | 0.03 | 82 | 1007.7 |
| 20260506210629 | 9 | 238 | 8.0 | 16.1 | 0.00 | 0.03 | 0.03 | 82 | 1007.7 |
| 20260506210529 | 9 | 250 | 8.0 | 16.1 | 0.00 | 0.03 | 0.03 | 82 | 1007.9 |
| 20260506210428 | 9 | 250 | 8.0 | 16.1 | 0.00 | 0.03 | 0.03 | 82 | 1007.8 |
| 20260506210328 | 9 | 274 | 8.0 | 22.5 | 0.00 | 0.03 | 0.03 | 82 | 1007.8 |
| 20260506210228 | 9 | 262 | 9.7 | 22.5 | 0.00 | 0.03 | 0.03 | 82 | 1007.8 |
| 20260506210128 | 9 | 227 | 9.7 | 22.5 | 0.00 | 0.03 | 0.03 | 82 | 1007.8 |
| 20260506210028 | 9 | 243 | 9.7 | 22.5 | 0.00 | 0.03 | 0.03 | 82 | 1007.7 |
| 20260506205928 | 9 | 223 | 9.7 | 22.5 | 0.00 | 0.03 | 0.03 | 82 | 1007.7 |
| 20260506205829 | 9 | 236 | 9.7 | 22.5 | 0.00 | 0.03 | 0.03 | 82 | 1007.7 |
| 20260506205729 | 9 | 280 | 9.7 | 22.5 | 0.00 | 0.03 | 0.03 | 82 | 1007.7 |
| 20260506205629 | 9 | 277 | 11.3 | 22.5 | 0.00 | 0.03 | 0.03 | 82 | 1007.7 |
| 20260506205528 | 9 | 262 | 11.3 | 22.5 | 0.00 | 0.03 | 0.03 | 82 | 1007.7 |
| 20260506205429 | 9 | 273 | 11.3 | 22.5 | 0.00 | 0.03 | 0.03 | 82 | 1007.7 |
| 20260506205329 | 9 | 246 | 11.3 | 22.5 | 0.00 | 0.03 | 0.03 | 82 | 1007.7 |
| 20260506205229 | 9 | 235 | 11.3 | 22.5 | 0.00 | 0.03 | 0.03 | 82 | 1007.7 |
| 20260506205129 | 9 | 225 | 9.7 | 22.5 | 0.00 | 0.03 | 0.03 | 82 | 1007.7 |
| 20260506205029 | 9 | 273 | 9.7 | 19.3 | 0.00 | 0.03 | 0.03 | 82 | 1007.6 |
| 20260506204929 | 9 | 230 | 9.7 | 19.3 | 0.00 | 0.03 | 0.03 | 82 | 1007.7 |
| 20260506204828 | 9 | 232 | 9.7 | 19.3 | 0.00 | 0.03 | 0.03 | 82 | 1007.7 |
| 20260506204729 | 9 | 248 | 9.7 | 19.3 | 0.00 | 0.03 | 0.03 | 82 | 1007.7 |
| 20260506204629 | 9 | 247 | 9.7 | 19.3 | 0.00 | 0.03 | 0.03 | 82 | 1007.7 |
| 20260506204530 | 9 | 220 | 9.7 | 19.3 | 0.00 | 0.03 | 0.03 | 82 | 1007.8 |
| 20260506204429 | 9 | 257 | 9.7 | 24.1 | 0.00 | 0.03 | 0.03 | 82 | 1007.7 |
| 20260506204329 | 9 | 244 | 9.7 | 24.1 | 0.00 | 0.03 | 0.03 | 82 | 1007.6 |
| 20260506204229 | 9 | 248 | 9.7 | 24.1 | 0.00 | 0.03 | 0.03 | 82 | 1007.6 |
| 20260506204129 | 9 | 271 | 9.7 | 24.1 | 0.00 | 0.03 | 0.03 | 82 | 1007.5 |
| 20260506204029 | 9 | 257 | 9.7 | 24.1 | 0.00 | 0.03 | 0.03 | 82 | 1007.6 |
| 20260506203928 | 9 | 279 | 9.7 | 24.1 | 0.00 | 0.03 | 0.03 | 82 | 1007.5 |
| 20260506203828 | 9 | 242 | 9.7 | 24.1 | 0.00 | 0.03 | 0.03 | 82 | 1007.5 |
| 20260506203728 | 9 | 263 | 9.7 | 24.1 | 0.00 | 0.03 | 0.03 | 82 | 1007.5 |
| 20260506203649 | 9 | 217 | 9.7 | 24.1 | 0.00 | 0.03 | 0.03 | 82 | 1007.5 |
| 20260506203645 | 9 | 215 | 9.7 | 24.1 | 0.00 | 0.03 | 0.03 | 82 | 1007.5 |
| 20260506203641 | 9 | 229 | 9.7 | 20.9 | 0.00 | 0.03 | 0.03 | 82 | 1007.5 |
| 20260506203329 | 9 | 276 | 9.7 | 20.9 | 0.00 | 0.03 | 0.03 | 82 | 1007.5 |
| 20260506203228 | 9 | 252 | 9.7 | 20.9 | 0.00 | 0.03 | 0.03 | 81 | 1007.4 |
| 20260506203128 | 9 | 236 | 9.7 | 20.9 | 0.00 | 0.03 | 0.03 | 81 | 1007.5 |
| 20260506203028 | 9 | 221 | 9.7 | 17.7 | 0.00 | 0.03 | 0.03 | 81 | 1007.4 |
| 20260506202929 | 9 | 236 | 9.7 | 17.7 | 0.00 | 0.03 | 0.03 | 81 | 1007.5 |
| 20260506202829 | 9 | 240 | 9.7 | 17.7 | 0.00 | 0.03 | 0.03 | 81 | 1007.4 |
| 20260506202729 | 9 | 284 | 9.7 | 17.7 | 0.00 | 0.03 | 0.03 | 81 | 1007.5 |
| 20260506202629 | 9 | 290 | 9.7 | 17.7 | 0.00 | 0.03 | 0.03 | 81 | 1007.4 |
| 20260506202529 | 9 | 253 | 11.3 | 17.7 | 0.00 | 0.03 | 0.03 | 81 | 1007.5 |
| 20260506202429 | 9 | 266 | 11.3 | 17.7 | 0.00 | 0.03 | 0.03 | 81 | 1007.5 |
| 20260506202329 | 9 | 247 | 9.7 | 17.7 | 0.00 | 0.03 | 0.03 | 82 | 1007.5 |
| 20260506202228 | 9 | 217 | 9.7 | 17.7 | 0.00 | 0.03 | 0.03 | 82 | 1007.4 |
| 20260506202129 | 9 | 271 | 9.7 | 17.7 | 0.00 | 0.03 | 0.03 | 82 | 1007.4 |
| 20260506202029 | 9 | 260 | 9.7 | 17.7 | 0.00 | 0.03 | 0.03 | 82 | 1007.4 |
| 20260506201929 | 9 | 256 | 9.7 | 17.7 | 0.00 | 0.03 | 0.03 | 82 | 1007.4 |
| 20260506201829 | 9 | 241 | 9.7 | 17.7 | 0.00 | 0.03 | 0.03 | 82 | 1007.4 |
| 20260506201729 | 9 | 275 | 9.7 | 17.7 | 0.00 | 0.03 | 0.03 | 82 | 1007.4 |
| 20260506201649 | 9 | 234 | 8.0 | 17.7 | 0.00 | 0.03 | 0.03 | 82 | 1007.4 |
| 20260506201645 | 9 | 241 | 8.0 | 17.7 | 0.00 | 0.03 | 0.03 | 81 | 1007.4 |
| 20260506201641 | 9 | 265 | 8.0 | 17.7 | 0.00 | 0.03 | 0.03 | 81 | 1007.4 |
| 20260506201329 | 9 | 279 | 8.0 | 17.7 | 0.00 | 0.03 | 0.03 | 82 | 1007.3 |
| 20260506201229 | 9 | 239 | 8.0 | 17.7 | 0.00 | 0.03 | 0.03 | 81 | 1007.3 |
| 20260506201129 | 9 | 225 | 8.0 | 17.7 | 0.00 | 0.03 | 0.03 | 81 | 1007.3 |
| 20260506201029 | 9 | 244 | 8.0 | 14.5 | 0.00 | 0.03 | 0.03 | 81 | 1007.4 |
| 20260506200928 | 9 | 261 | 8.0 | 14.5 | 0.00 | 0.03 | 0.03 | 82 | 1007.3 |
| 20260506200829 | 9 | 286 | 8.0 | 14.5 | 0.00 | 0.03 | 0.03 | 82 | 1007.3 |
| 20260506200728 | 9 | 272 | 8.0 | 14.5 | 0.00 | 0.03 | 0.03 | 81 | 1007.3 |
| 20260506200628 | 9 | 232 | 8.0 | 14.5 | 0.00 | 0.03 | 0.03 | 81 | 1007.3 |
| 20260506200528 | 9 | 249 | 8.0 | 14.5 | 0.00 | 0.03 | 0.03 | 81 | 1007.3 |
| 20260506200430 | 9 | 249 | 8.0 | 16.1 | 0.00 | 0.03 | 0.03 | 81 | 1007.3 |
| 20260506200426 | 9 | 248 | 8.0 | 16.1 | 0.00 | 0.03 | 0.03 | 81 | 1007.3 |
| 20260506200329 | 9 | 244 | 8.0 | 16.1 | 0.00 | 0.03 | 0.03 | 81 | 1007.2 |
| 20260506200229 | 9 | 210 | 8.0 | 16.1 | 0.00 | 0.03 | 0.03 | 81 | 1007.2 |
| 20260506200128 | 9 | 277 | 8.0 | 16.1 | 0.00 | 0.03 | 0.03 | 81 | 1007.3 |
| 20260506200029 | 9 | 236 | 8.0 | 16.1 | 0.00 | 0.03 | 0.03 | 81 | 1007.2 |
| 20260506195921 | 9 | 252 | 9.7 | 16.1 | 0.00 | 0.03 | 0.03 | 81 | 1007.2 |
| 20260506195829 | 9 | 271 | 9.7 | 16.1 | 0.00 | 0.03 | 0.03 | 81 | 1007.1 |
| 20260506195729 | 9 | 302 | 9.7 | 16.1 | 0.00 | 0.03 | 0.03 | 81 | 1007.1 |
| 20260506195630 | 9 | 232 | 9.7 | 16.1 | 0.00 | 0.03 | 0.03 | 81 | 1007.2 |
| 20260506195529 | 9 | 246 | 9.7 | 17.7 | 0.00 | 0.03 | 0.03 | 81 | 1007.3 |
| 20260506195429 | 9 | 276 | 9.7 | 17.7 | 0.00 | 0.03 | 0.03 | 81 | 1007.2 |
| 20260506195415 | 9 | 290 | 9.7 | 17.7 | 0.00 | 0.03 | 0.03 | 81 | 1007.2 |
| 20260506195329 | 9 | 267 | 9.7 | 17.7 | 0.00 | 0.03 | 0.03 | 81 | 1007.3 |
| 20260506195229 | 9 | 271 | 9.7 | 17.7 | 0.00 | 0.03 | 0.03 | 81 | 1007.3 |
| 20260506195127 | 9 | 242 | 9.7 | 17.7 | 0.00 | 0.03 | 0.03 | 81 | 1007.2 |
| 20260506195027 | 9 | 286 | 9.7 | 17.7 | 0.00 | 0.03 | 0.03 | 81 | 1007.3 |
| 20260506194927 | 10 | 252 | 9.7 | 17.7 | 0.00 | 0.03 | 0.03 | 81 | 1007.3 |
| 20260506194908 | 9 | 296 | 9.7 | 17.7 | 0.00 | 0.03 | 0.03 | 81 | 1007.3 |
| 20260506194826 | 10 | 267 | 9.7 | 17.7 | 0.00 | 0.03 | 0.03 | 81 | 1007.3 |
| 20260506194726 | 10 | 266 | 9.7 | 17.7 | 0.00 | 0.03 | 0.03 | 81 | 1007.2 |
| 20260506194621 | 10 | 229 | 8.0 | 17.7 | 0.00 | 0.03 | 0.03 | 81 | 1007.3 |
| 20260506194521 | 10 | 283 | 8.0 | 16.1 | 0.00 | 0.03 | 0.03 | 81 | 1007.2 |
| 20260506194421 | 10 | 281 | 8.0 | 16.1 | 0.00 | 0.03 | 0.03 | 81 | 1007.2 |
| 20260506194402 | 10 | 247 | 8.0 | 16.1 | 0.00 | 0.03 | 0.03 | 81 | 1007.2 |
| 20260506194320 | 10 | 265 | 8.0 | 16.1 | 0.00 | 0.03 | 0.03 | 81 | 1007.2 |
| 20260506194220 | 10 | 261 | 8.0 | 14.5 | 0.00 | 0.03 | 0.03 | 81 | 1007.2 |
| 20260506194128 | 10 | 253 | 8.0 | 14.5 | 0.00 | 0.03 | 0.03 | 81 | 1007.2 |
| 20260506194123 | 10 | 275 | 8.0 | 14.5 | 0.00 | 0.03 | 0.03 | 81 | 1007.2 |
| 20260506194119 | 10 | 228 | 8.0 | 14.5 | 0.00 | 0.03 | 0.03 | 81 | 1007.2 |
| 20260506194115 | 10 | 272 | 8.0 | 14.5 | 0.00 | 0.03 | 0.03 | 81 | 1007.2 |
| 20260506193817 | 10 | 234 | 9.7 | 16.1 | 0.00 | 0.03 | 0.03 | 81 | 1007.2 |
| 20260506193715 | 10 | 247 | 9.7 | 16.1 | 0.00 | 0.03 | 0.03 | 81 | 1007.2 |
| 20260506193608 | 10 | 269 | 9.7 | 17.7 | 0.00 | 0.03 | 0.03 | 80 | 1007.1 |
| 20260506193508 | 10 | 271 | 9.7 | 17.7 | 0.00 | 0.03 | 0.03 | 80 | 1007.1 |
| 20260506193409 | 10 | 285 | 9.7 | 17.7 | 0.00 | 0.03 | 0.03 | 80 | 1007.1 |
| 20260506193403 | 10 | 249 | 9.7 | 17.7 | 0.00 | 0.03 | 0.03 | 80 | 1007.1 |
| 20260506193309 | 10 | 246 | 9.7 | 17.7 | 0.00 | 0.03 | 0.03 | 80 | 1007.1 |
| 20260506193209 | 10 | 280 | 9.7 | 17.7 | 0.00 | 0.03 | 0.03 | 80 | 1007.0 |
| 20260506193103 | 10 | 239 | 9.7 | 19.3 | 0.00 | 0.03 | 0.03 | 80 | 1007.0 |
| 20260506193003 | 10 | 304 | 9.7 | 19.3 | 0.00 | 0.03 | 0.03 | 80 | 1007.0 |
| 20260506192901 | 10 | 282 | 9.7 | 19.3 | 0.00 | 0.03 | 0.03 | 80 | 1007.0 |
| 20260506192801 | 10 | 288 | 9.7 | 19.3 | 0.00 | 0.03 | 0.03 | 80 | 1007.0 |
| 20260506192701 | 10 | 246 | 9.7 | 19.3 | 0.00 | 0.03 | 0.03 | 80 | 1007.1 |
| 20260506192601 | 10 | 273 | 9.7 | 19.3 | 0.00 | 0.03 | 0.03 | 80 | 1007.1 |
| 20260506192501 | 10 | 262 | 9.7 | 19.3 | 0.00 | 0.03 | 0.03 | 80 | 1007.0 |
| 20260506192401 | 10 | 270 | 9.7 | 19.3 | 0.00 | 0.03 | 0.03 | 80 | 1007.1 |
| 20260506192301 | 10 | 275 | 9.7 | 19.3 | 0.00 | 0.03 | 0.03 | 80 | 1007.0 |
| 20260506192202 | 10 | 248 | 9.7 | 19.3 | 0.00 | 0.03 | 0.03 | 80 | 1007.0 |
| 20260506192100 | 10 | 265 | 9.7 | 19.3 | 0.00 | 0.03 | 0.03 | 80 | 1007.0 |
| 20260506192001 | 10 | 242 | 9.7 | 19.3 | 0.00 | 0.03 | 0.03 | 80 | 1007.0 |
| 20260506191901 | 10 | 233 | 8.0 | 17.7 | 0.00 | 0.03 | 0.03 | 80 | 1007.1 |
| 20260506191801 | 10 | 263 | 8.0 | 16.1 | 0.00 | 0.03 | 0.03 | 80 | 1007.0 |
| 20260506191701 | 10 | 276 | 8.0 | 16.1 | 0.00 | 0.03 | 0.03 | 80 | 1007.0 |
| 20260506191601 | 10 | 248 | 8.0 | 16.1 | 0.00 | 0.03 | 0.03 | 80 | 1007.0 |
| 20260506191500 | 10 | 227 | 9.7 | 16.1 | 0.00 | 0.03 | 0.03 | 80 | 1007.0 |
| 20260506191400 | 10 | 230 | 9.7 | 16.1 | 0.00 | 0.03 | 0.03 | 80 | 1007.0 |
| 20260506191301 | 10 | 244 | 9.7 | 16.1 | 0.00 | 0.03 | 0.03 | 80 | 1007.0 |
| 20260506191101 | 10 | 262 | 9.7 | 19.3 | 0.00 | 0.03 | 0.03 | 80 | 1007.1 |
| 20260506191001 | 10 | 274 | 9.7 | 19.3 | 0.00 | 0.03 | 0.03 | 79 | 1007.0 |
| 20260506190901 | 10 | 269 | 9.7 | 19.3 | 0.00 | 0.03 | 0.03 | 79 | 1007.0 |
| 20260506190801 | 10 | 277 | 9.7 | 19.3 | 0.00 | 0.03 | 0.03 | 79 | 1007.0 |
| 20260506190700 | 10 | 265 | 9.7 | 19.3 | 0.00 | 0.03 | 0.03 | 79 | 1007.0 |
| 20260506190600 | 10 | 218 | 9.7 | 19.3 | 0.00 | 0.03 | 0.03 | 79 | 1007.0 |
| 20260506190500 | 10 | 201 | 9.7 | 19.3 | 0.00 | 0.03 | 0.03 | 79 | 1007.0 |
| 20260506190400 | 10 | 254 | 9.7 | 19.3 | 0.00 | 0.03 | 0.03 | 79 | 1007.1 |
| 20260506190301 | 10 | 217 | 9.7 | 19.3 | 0.00 | 0.03 | 0.03 | 79 | 1007.0 |
| 20260506190201 | 10 | 236 | 9.7 | 19.3 | 0.00 | 0.03 | 0.03 | 79 | 1007.0 |
| 20260506190100 | 10 | 211 | 9.7 | 17.7 | 0.00 | 0.03 | 0.03 | 79 | 1006.9 |
| 20260506190001 | 10 | 223 | 9.7 | 17.7 | 0.00 | 0.03 | 0.03 | 80 | 1006.9 |
| 20260506185901 | 10 | 238 | 9.7 | 17.7 | 0.00 | 0.03 | 0.03 | 80 | 1006.8 |
| 20260506185801 | 10 | 226 | 9.7 | 17.7 | 0.00 | 0.03 | 0.03 | 80 | 1006.9 |
| 20260506185701 | 10 | 249 | 9.7 | 17.7 | 0.00 | 0.03 | 0.03 | 79 | 1006.8 |
| 20260506185601 | 10 | 277 | 8.0 | 16.1 | 0.00 | 0.03 | 0.03 | 79 | 1006.8 |
| 20260506185501 | 10 | 240 | 8.0 | 16.1 | 0.00 | 0.03 | 0.03 | 79 | 1006.8 |
| 20260506185400 | 10 | 222 | 8.0 | 14.5 | 0.00 | 0.03 | 0.03 | 80 | 1006.8 |
| 20260506185301 | 10 | 280 | 8.0 | 12.9 | 0.00 | 0.03 | 0.03 | 79 | 1006.8 |
| 20260506185200 | 10 | 221 | 8.0 | 12.9 | 0.00 | 0.03 | 0.03 | 80 | 1006.8 |
| 20260506185100 | 10 | 238 | 8.0 | 12.9 | 0.00 | 0.03 | 0.03 | 79 | 1006.8 |
| 20260506185001 | 10 | 244 | 8.0 | 14.5 | 0.00 | 0.03 | 0.03 | 79 | 1006.8 |
| 20260506184901 | 10 | 245 | 8.0 | 14.5 | 0.00 | 0.03 | 0.03 | 79 | 1006.8 |
| 20260506184801 | 10 | 253 | 8.0 | 14.5 | 0.00 | 0.03 | 0.03 | 79 | 1006.9 |
| 20260506184701 | 10 | 296 | 8.0 | 17.7 | 0.00 | 0.03 | 0.03 | 79 | 1006.8 |
| 20260506184601 | 10 | 250 | 8.0 | 17.7 | 0.00 | 0.03 | 0.03 | 79 | 1006.8 |
| 20260506184501 | 10 | 285 | 8.0 | 17.7 | 0.00 | 0.03 | 0.03 | 79 | 1006.8 |
| 20260506184400 | 10 | 209 | 8.0 | 17.7 | 0.00 | 0.03 | 0.03 | 79 | 1006.9 |
| 20260506184300 | 10 | 260 | 9.7 | 17.7 | 0.00 | 0.03 | 0.03 | 79 | 1006.9 |
| 20260506184201 | 10 | 223 | 9.7 | 17.7 | 0.00 | 0.03 | 0.03 | 79 | 1006.8 |
| 20260506184101 | 10 | 257 | 9.7 | 17.7 | 0.00 | 0.03 | 0.03 | 79 | 1006.9 |
| 20260506184000 | 10 | 227 | 9.7 | 17.7 | 0.00 | 0.03 | 0.03 | 79 | 1006.9 |
| 20260506183900 | 10 | 284 | 9.7 | 17.7 | 0.00 | 0.03 | 0.03 | 79 | 1006.8 |
| 20260506183800 | 10 | 246 | 9.7 | 17.7 | 0.00 | 0.03 | 0.03 | 79 | 1006.9 |
| 20260506183700 | 10 | 248 | 9.7 | 17.7 | 0.00 | 0.03 | 0.03 | 78 | 1006.7 |
| 20260506183601 | 10 | 236 | 9.7 | 17.7 | 0.00 | 0.03 | 0.03 | 78 | 1006.9 |
| 20260506183501 | 10 | 273 | 9.7 | 17.7 | 0.00 | 0.03 | 0.03 | 79 | 1006.9 |
| 20260506183401 | 10 | 277 | 9.7 | 17.7 | 0.00 | 0.03 | 0.03 | 78 | 1006.8 |
| 20260506183301 | 10 | 239 | 9.7 | 19.3 | 0.00 | 0.03 | 0.03 | 78 | 1006.8 |
| 20260506183201 | 10 | 256 | 9.7 | 19.3 | 0.00 | 0.03 | 0.03 | 79 | 1006.8 |
| 20260506183101 | 10 | 271 | 9.7 | 19.3 | 0.00 | 0.03 | 0.03 | 79 | 1006.8 |
| 20260506183000 | 10 | 271 | 9.7 | 19.3 | 0.00 | 0.03 | 0.03 | 79 | 1006.8 |
| 20260506182900 | 10 | 260 | 9.7 | 19.3 | 0.00 | 0.03 | 0.03 | 78 | 1006.8 |
| 20260506182800 | 10 | 264 | 9.7 | 19.3 | 0.00 | 0.03 | 0.03 | 78 | 1006.7 |
| 20260506182700 | 10 | 254 | 9.7 | 19.3 | 0.00 | 0.03 | 0.03 | 78 | 1006.7 |
| 20260506182601 | 10 | 229 | 9.7 | 19.3 | 0.00 | 0.03 | 0.03 | 78 | 1006.8 |
| 20260506182501 | 10 | 262 | 11.3 | 20.9 | 0.00 | 0.03 | 0.03 | 78 | 1006.7 |
| 20260506182401 | 10 | 270 | 11.3 | 20.9 | 0.00 | 0.03 | 0.03 | 78 | 1006.7 |
| 20260506182301 | 10 | 266 | 11.3 | 20.9 | 0.00 | 0.03 | 0.03 | 78 | 1006.7 |
| 20260506182200 | 10 | 238 | 11.3 | 20.9 | 0.00 | 0.03 | 0.03 | 78 | 1006.7 |
| 20260506182101 | 10 | 263 | 11.3 | 20.9 | 0.00 | 0.03 | 0.03 | 78 | 1006.7 |
| 20260506182001 | 10 | 274 | 11.3 | 20.9 | 0.00 | 0.03 | 0.03 | 79 | 1006.5 |
| 20260506181900 | 10 | 255 | 11.3 | 20.9 | 0.00 | 0.03 | 0.03 | 78 | 1006.7 |
| 20260506181800 | 10 | 226 | 11.3 | 20.9 | 0.00 | 0.03 | 0.03 | 78 | 1006.7 |
| 20260506181700 | 10 | 275 | 11.3 | 20.9 | 0.00 | 0.03 | 0.03 | 78 | 1006.5 |
| 20260506181600 | 10 | 223 | 11.3 | 20.9 | 0.00 | 0.03 | 0.03 | 78 | 1006.4 |
| 20260506181501 | 10 | 227 | 9.7 | 20.9 | 0.00 | 0.03 | 0.03 | 78 | 1006.4 |
| 20260506181401 | 10 | 253 | 9.7 | 20.9 | 0.00 | 0.03 | 0.03 | 78 | 1006.4 |
| 20260506181301 | 10 | 236 | 9.7 | 19.3 | 0.00 | 0.03 | 0.03 | 78 | 1006.4 |
| 20260506181201 | 10 | 274 | 9.7 | 19.3 | 0.00 | 0.03 | 0.03 | 78 | 1006.4 |
| 20260506181107 | 11 | 229 | 9.7 | 19.3 | 0.00 | 0.03 | 0.03 | 78 | 1006.3 |
| 20260506181000 | 11 | 281 | 8.0 | 19.3 | 0.00 | 0.03 | 0.03 | 78 | 1006.3 |
| 20260506180901 | 11 | 271 | 8.0 | 19.3 | 0.00 | 0.03 | 0.03 | 78 | 1006.3 |
| 20260506180801 | 11 | 250 | 8.0 | 19.3 | 0.00 | 0.03 | 0.03 | 78 | 1006.4 |
| 20260506180701 | 11 | 273 | 8.0 | 17.7 | 0.00 | 0.03 | 0.03 | 78 | 1006.3 |
| 20260506180603 | 11 | 242 | 8.0 | 17.7 | 0.00 | 0.03 | 0.03 | 78 | 1006.3 |
| 20260506180500 | 11 | 252 | 8.0 | 17.7 | 0.00 | 0.03 | 0.03 | 78 | 1006.3 |
| 20260506180400 | 11 | 277 | 8.0 | 17.7 | 0.00 | 0.03 | 0.03 | 78 | 1006.3 |
| 20260506180300 | 11 | 243 | 8.0 | 17.7 | 0.00 | 0.03 | 0.03 | 78 | 1006.3 |
| 20260506180200 | 11 | 240 | 8.0 | 17.7 | 0.00 | 0.03 | 0.03 | 78 | 1006.2 |
| 20260506180124 | 11 | 243 | 8.0 | 17.7 | 0.00 | 0.03 | 0.03 | 78 | 1006.3 |
| 20260506180116 | 11 | 248 | 8.0 | 17.7 | 0.00 | 0.03 | 0.03 | 78 | 1006.3 |
| 20260506180112 | 11 | 270 | 8.0 | 17.7 | 0.00 | 0.03 | 0.03 | 78 | 1006.2 |
| 20260506175800 | 11 | 272 | 8.0 | 16.1 | 0.00 | 0.03 | 0.03 | 78 | 1006.2 |
| 20260506175701 | 11 | 248 | 8.0 | 16.1 | 0.00 | 0.03 | 0.03 | 78 | 1006.2 |
| 20260506175624 | 11 | 244 | 9.7 | 17.7 | 0.00 | 0.03 | 0.03 | 78 | 1006.2 |
| 20260506175615 | 11 | 243 | 9.7 | 20.9 | 0.00 | 0.03 | 0.03 | 78 | 1006.2 |
| 20260506175611 | 11 | 256 | 11.3 | 20.9 | 0.00 | 0.03 | 0.03 | 78 | 1006.2 |
| 20260506175300 | 11 | 238 | 11.3 | 20.9 | 0.00 | 0.03 | 0.03 | 78 | 1006.2 |
| 20260506175200 | 11 | 242 | 11.3 | 20.9 | 0.00 | 0.03 | 0.03 | 78 | 1006.1 |
| 20260506175101 | 11 | 273 | 11.3 | 20.9 | 0.00 | 0.03 | 0.03 | 78 | 1006.1 |
| 20260506175001 | 11 | 258 | 11.3 | 20.9 | 0.00 | 0.03 | 0.03 | 78 | 1006.0 |
| 20260506174900 | 11 | 216 | 11.3 | 20.9 | 0.00 | 0.03 | 0.03 | 78 | 1006.0 |
| 20260506174800 | 11 | 255 | 11.3 | 20.9 | 0.00 | 0.03 | 0.03 | 78 | 1006.1 |
| 20260506174700 | 11 | 263 | 11.3 | 20.9 | 0.00 | 0.03 | 0.03 | 78 | 1006.1 |
| 20260506174623 | 11 | 272 | 11.3 | 20.9 | 0.00 | 0.03 | 0.03 | 78 | 1006.1 |
| 20260506174615 | 11 | 288 | 9.7 | 17.7 | 0.00 | 0.03 | 0.03 | 78 | 1006.0 |
| 20260506174611 | 11 | 232 | 9.7 | 17.7 | 0.00 | 0.03 | 0.03 | 78 | 1006.1 |
| 20260506174300 | 11 | 218 | 9.7 | 16.1 | 0.00 | 0.03 | 0.03 | 79 | 1006.0 |
| 20260506174200 | 11 | 267 | 9.7 | 16.1 | 0.00 | 0.03 | 0.03 | 79 | 1005.9 |
| 20260506174100 | 11 | 272 | 9.7 | 16.1 | 0.00 | 0.03 | 0.03 | 78 | 1005.9 |
| 20260506174001 | 11 | 214 | 9.7 | 16.1 | 0.00 | 0.03 | 0.03 | 78 | 1005.9 |
| 20260506173901 | 11 | 267 | 9.7 | 17.7 | 0.00 | 0.03 | 0.03 | 79 | 1005.8 |
| 20260506173801 | 11 | 241 | 9.7 | 17.7 | 0.00 | 0.03 | 0.03 | 78 | 1005.8 |
| 20260506173700 | 11 | 273 | 9.7 | 17.7 | 0.00 | 0.03 | 0.03 | 78 | 1005.7 |
| 20260506173600 | 11 | 244 | 9.7 | 17.7 | 0.00 | 0.03 | 0.03 | 78 | 1005.5 |
| 20260506173500 | 11 | 280 | 9.7 | 19.3 | 0.00 | 0.03 | 0.03 | 78 | 1005.5 |
| 20260506173400 | 11 | 255 | 9.7 | 19.3 | 0.00 | 0.03 | 0.03 | 78 | 1005.5 |
| 20260506173300 | 11 | 278 | 9.7 | 19.3 | 0.00 | 0.03 | 0.03 | 78 | 1005.5 |
| 20260506173200 | 11 | 259 | 11.3 | 20.9 | 0.00 | 0.03 | 0.03 | 78 | 1005.4 |
| 20260506173101 | 10 | 258 | 11.3 | 22.5 | 0.00 | 0.03 | 0.03 | 78 | 1005.5 |
| 20260506173000 | 11 | 246 | 12.9 | 22.5 | 0.00 | 0.03 | 0.03 | 78 | 1005.5 |
| 20260506172901 | 11 | 240 | 12.9 | 22.5 | 0.00 | 0.03 | 0.03 | 78 | 1005.4 |
| 20260506172801 | 11 | 230 | 14.5 | 24.1 | 0.00 | 0.03 | 0.03 | 78 | 1005.5 |
| 20260506172701 | 11 | 250 | 14.5 | 24.1 | 0.00 | 0.03 | 0.03 | 78 | 1005.4 |
| 20260506172601 | 11 | 272 | 14.5 | 24.1 | 0.00 | 0.03 | 0.03 | 78 | 1005.4 |
| 20260506172501 | 11 | 251 | 16.1 | 25.7 | 0.00 | 0.03 | 0.03 | 77 | 1005.4 |
| 20260506172400 | 11 | 263 | 16.1 | 27.4 | 0.00 | 0.03 | 0.03 | 78 | 1005.4 |
| 20260506172300 | 11 | 242 | 17.7 | 27.4 | 0.00 | 0.03 | 0.03 | 78 | 1005.4 |
| 20260506172200 | 11 | 267 | 17.7 | 27.4 | 0.00 | 0.03 | 0.03 | 78 | 1005.5 |
| 20260506172100 | 11 | 285 | 17.7 | 27.4 | 0.00 | 0.03 | 0.03 | 77 | 1005.6 |
| 20260506172000 | 11 | 261 | 17.7 | 27.4 | 0.00 | 0.03 | 0.03 | 78 | 1005.3 |
| 20260506171901 | 11 | 273 | 17.7 | 27.4 | 0.00 | 0.03 | 0.03 | 78 | 1005.3 |
| 20260506171800 | 11 | 269 | 17.7 | 27.4 | 0.00 | 0.03 | 0.03 | 78 | 1005.3 |
| 20260506171700 | 11 | 253 | 16.1 | 27.4 | 0.00 | 0.03 | 0.03 | 78 | 1005.4 |
| 20260506171600 | 11 | 230 | 16.1 | 27.4 | 0.00 | 0.03 | 0.03 | 77 | 1005.4 |
| 20260506171500 | 11 | 286 | 17.7 | 30.6 | 0.00 | 0.03 | 0.03 | 78 | 1005.4 |
| 20260506171400 | 11 | 268 | 17.7 | 30.6 | 0.00 | 0.03 | 0.03 | 78 | 1005.3 |
| 20260506171300 | 11 | 250 | 17.7 | 30.6 | 0.00 | 0.03 | 0.03 | 77 | 1005.4 |
| 20260506171200 | 11 | 292 | 17.7 | 30.6 | 0.00 | 0.03 | 0.03 | 77 | 1005.3 |
| 20260506171100 | 11 | 233 | 17.7 | 30.6 | 0.00 | 0.03 | 0.03 | 78 | 1005.3 |
| 20260506171001 | 11 | 248 | 17.7 | 30.6 | 0.00 | 0.03 | 0.03 | 78 | 1005.5 |
| 20260506170901 | 11 | 277 | 17.7 | 30.6 | 0.00 | 0.03 | 0.03 | 78 | 1005.3 |
| 20260506170800 | 11 | 253 | 19.3 | 30.6 | 0.00 | 0.03 | 0.03 | 78 | 1005.3 |
| 20260506170700 | 11 | 252 | 19.3 | 30.6 | 0.00 | 0.03 | 0.03 | 77 | 1005.3 |
| 20260506170600 | 11 | 254 | 19.3 | 30.6 | 0.00 | 0.03 | 0.03 | 77 | 1005.4 |
| 20260506170501 | 11 | 263 | 19.3 | 30.6 | 0.00 | 0.03 | 0.03 | 77 | 1005.4 |
| 20260506170401 | 11 | 282 | 19.3 | 30.6 | 0.00 | 0.05 | 0.03 | 78 | 1005.4 |
| 20260506170300 | 11 | 256 | 19.3 | 30.6 | 0.00 | 0.05 | 0.03 | 78 | 1005.6 |
| 20260506170200 | 11 | 220 | 19.3 | 30.6 | 0.00 | 0.05 | 0.03 | 78 | 1005.5 |
| 20260506170100 | 11 | 268 | 19.3 | 32.2 | 0.00 | 0.05 | 0.03 | 78 | 1005.3 |
| 20260506170001 | 11 | 210 | 19.3 | 32.2 | 0.00 | 0.05 | 0.03 | 77 | 1005.3 |
| 20260506165901 | 11 | 240 | 19.3 | 32.2 | 0.00 | 0.05 | 0.03 | 77 | 1005.5 |
| 20260506165800 | 11 | 266 | 19.3 | 32.2 | 0.00 | 0.05 | 0.03 | 77 | 1005.3 |
| 20260506165700 | 11 | 269 | 19.3 | 32.2 | 0.00 | 0.05 | 0.03 | 77 | 1005.2 |
| 20260506165600 | 11 | 256 | 19.3 | 32.2 | 0.00 | 0.05 | 0.03 | 78 | 1005.2 |
| 20260506165500 | 11 | 277 | 19.3 | 32.2 | 0.00 | 0.05 | 0.03 | 77 | 1005.6 |
| 20260506165400 | 11 | 255 | 20.9 | 33.8 | 0.00 | 0.05 | 0.03 | 78 | 1005.2 |
| 20260506165300 | 11 | 254 | 20.9 | 33.8 | 0.00 | 0.05 | 0.03 | 77 | 1005.4 |
| 20260506165202 | 11 | 237 | 20.9 | 33.8 | 0.00 | 0.05 | 0.03 | 78 | 1005.4 |
| 20260506165101 | 11 | 269 | 20.9 | 33.8 | 0.00 | 0.05 | 0.03 | 78 | 1005.2 |
| 20260506165001 | 11 | 302 | 22.5 | 33.8 | 0.00 | 0.05 | 0.03 | 77 | 1005.3 |
| 20260506164901 | 11 | 258 | 24.1 | 40.2 | 0.00 | 0.05 | 0.03 | 77 | 1005.3 |
| 20260506164801 | 11 | 256 | 24.1 | 40.2 | 0.00 | 0.05 | 0.03 | 77 | 1005.3 |
| 20260506164700 | 11 | 245 | 24.1 | 40.2 | 0.00 | 0.05 | 0.03 | 76 | 1005.5 |
| 20260506164600 | 11 | 282 | 24.1 | 40.2 | 0.00 | 0.05 | 0.03 | 76 | 1005.8 |
| 20260506164500 | 11 | 244 | 24.1 | 40.2 | 0.00 | 0.05 | 0.03 | 76 | 1005.8 |
| 20260506164400 | 11 | 288 | 22.5 | 40.2 | 0.00 | 0.05 | 0.03 | 76 | 1005.3 |
| 20260506164301 | 11 | 273 | 22.5 | 40.2 | 0.00 | 0.05 | 0.03 | 77 | 1005.3 |
| 20260506164200 | 11 | 236 | 22.5 | 40.2 | 0.00 | 0.05 | 0.03 | 76 | 1005.3 |
| 20260506164100 | 11 | 292 | 20.9 | 40.2 | 0.00 | 0.05 | 0.03 | 76 | 1005.5 |
| 20260506164001 | 11 | 277 | 20.9 | 40.2 | 0.00 | 0.05 | 0.03 | 77 | 1005.5 |
| 20260506163901 | 11 | 271 | 20.9 | 37.0 | 0.00 | 0.05 | 0.03 | 77 | 1005.6 |
| 20260506163800 | 11 | 240 | 20.9 | 37.0 | 0.03 | 0.05 | 0.03 | 77 | 1005.6 |
| 20260506163700 | 11 | 267 | 19.3 | 37.0 | 0.03 | 0.05 | 0.03 | 78 | 1005.8 |
| 20260506163600 | 11 | 242 | 19.3 | 37.0 | 0.03 | 0.05 | 0.03 | 80 | 1005.4 |
| 20260506163500 | 11 | 289 | 17.7 | 37.0 | 0.03 | 0.05 | 0.03 | 80 | 1005.3 |
| 20260506163400 | 11 | 270 | 17.7 | 37.0 | 0.03 | 0.05 | 0.03 | 79 | 1005.3 |
| 20260506163300 | 11 | 247 | 17.7 | 37.0 | 0.03 | 0.05 | 0.03 | 79 | 1005.3 |
| 20260506163200 | 11 | 284 | 17.7 | 37.0 | 0.03 | 0.05 | 0.03 | 78 | 1005.4 |
| 20260506163101 | 11 | 265 | 16.1 | 37.0 | 0.03 | 0.05 | 0.03 | 79 | 1005.2 |
| 20260506163000 | 11 | 281 | 16.1 | 37.0 | 0.03 | 0.05 | 0.03 | 79 | 1005.3 |
| 20260506162901 | 11 | 297 | 14.5 | 24.1 | 0.03 | 0.05 | 0.03 | 80 | 1005.4 |
| 20260506162801 | 11 | 265 | 14.5 | 24.1 | 0.03 | 0.05 | 0.03 | 81 | 1005.5 |
| 20260506162701 | 11 | 282 | 14.5 | 22.5 | 0.03 | 0.05 | 0.03 | 81 | 1005.2 |
| 20260506162600 | 11 | 221 | 12.9 | 22.5 | 0.03 | 0.05 | 0.03 | 81 | 1005.2 |
| 20260506162500 | 11 | 257 | 12.9 | 22.5 | 0.03 | 0.05 | 0.03 | 82 | 1005.2 |
| 20260506162400 | 11 | 269 | 14.5 | 22.5 | 0.03 | 0.05 | 0.03 | 82 | 1005.1 |
| 20260506162300 | 11 | 241 | 14.5 | 22.5 | 0.03 | 0.05 | 0.03 | 81 | 1005.1 |
| 20260506162200 | 11 | 270 | 14.5 | 32.2 | 0.03 | 0.05 | 0.03 | 81 | 1005.2 |
| 20260506162101 | 11 | 289 | 16.1 | 32.2 | 0.03 | 0.05 | 0.03 | 81 | 1005.1 |
| 20260506162000 | 11 | 285 | 16.1 | 32.2 | 0.03 | 0.05 | 0.03 | 81 | 1005.1 |
| 20260506161900 | 11 | 273 | 16.1 | 32.2 | 0.03 | 0.05 | 0.03 | 82 | 1005.1 |
| 20260506161800 | 11 | 268 | 16.1 | 32.2 | 0.03 | 0.05 | 0.03 | 82 | 1005.2 |
| 20260506161700 | 11 | 242 | 17.7 | 32.2 | 0.03 | 0.05 | 0.03 | 82 | 1005.1 |
| 20260506161600 | 11 | 264 | 17.7 | 32.2 | 0.03 | 0.05 | 0.03 | 81 | 1005.2 |
| 20260506161500 | 11 | 263 | 19.3 | 32.2 | 0.03 | 0.05 | 0.03 | 81 | 1005.1 |
| 20260506161400 | 11 | 248 | 19.3 | 32.2 | 0.03 | 0.05 | 0.03 | 81 | 1005.2 |
| 20260506161301 | 11 | 260 | 19.3 | 32.2 | 0.03 | 0.05 | 0.03 | 81 | 1005.3 |
| 20260506161201 | 11 | 263 | 19.3 | 30.6 | 0.03 | 0.05 | 0.03 | 82 | 1005.3 |
| 20260506161124 | 11 | 262 | 17.7 | 30.6 | 0.03 | 0.05 | 0.03 | 82 | 1005.2 |
| 20260506161120 | 11 | 269 | 19.3 | 30.6 | 0.03 | 0.05 | 0.03 | 82 | 1005.2 |
| 20260506161112 | 11 | 269 | 17.7 | 30.6 | 0.03 | 0.05 | 0.03 | 82 | 1005.1 |
| 20260506160801 | 11 | 270 | 17.7 | 30.6 | 0.03 | 0.05 | 0.03 | 83 | 1005.0 |
| 20260506160701 | 11 | 266 | 17.7 | 30.6 | 0.03 | 0.05 | 0.03 | 83 | 1005.2 |
| 20260506160601 | 11 | 294 | 16.1 | 30.6 | 0.03 | 0.05 | 0.03 | 84 | 1005.0 |
| 20260506160503 | 11 | 230 | 16.1 | 30.6 | 0.03 | 0.05 | 0.03 | 84 | 1005.0 |
| 20260506160400 | 11 | 255 | 16.1 | 30.6 | 0.03 | 0.05 | 0.03 | 85 | 1005.1 |
| 20260506160301 | 11 | 263 | 16.1 | 30.6 | 0.03 | 0.05 | 0.03 | 84 | 1004.9 |
| 20260506160201 | 11 | 268 | 17.7 | 30.6 | 0.03 | 0.05 | 0.03 | 85 | 1004.7 |
| 20260506160124 | 11 | 238 | 17.7 | 30.6 | 0.03 | 0.05 | 0.03 | 85 | 1005.0 |
| 20260506160120 | 11 | 278 | 16.1 | 27.4 | 0.03 | 0.05 | 0.03 | 85 | 1004.9 |
| 20260506160111 | 11 | 274 | 16.1 | 27.4 | 0.03 | 0.05 | 0.03 | 84 | 1004.9 |
| 20260506155801 | 11 | 224 | 16.1 | 27.4 | 0.03 | 0.05 | 0.03 | 84 | 1004.9 |
| 20260506155701 | 11 | 273 | 16.1 | 27.4 | 0.03 | 0.05 | 0.03 | 84 | 1004.7 |
| 20260506155601 | 11 | 257 | 17.7 | 29.0 | 0.03 | 0.05 | 0.03 | 84 | 1004.7 |
| 20260506155501 | 11 | 273 | 17.7 | 29.0 | 0.03 | 0.05 | 0.03 | 83 | 1004.9 |
| 20260506155401 | 11 | 268 | 17.7 | 29.0 | 0.03 | 0.05 | 0.03 | 84 | 1005.0 |
| 20260506155305 | 11 | 265 | 17.7 | 32.2 | 0.03 | 0.05 | 0.03 | 83 | 1004.9 |
| 20260506155201 | 11 | 268 | 17.7 | 32.2 | 0.03 | 0.05 | 0.03 | 83 | 1005.1 |
| 20260506155124 | 11 | 272 | 19.3 | 32.2 | 0.03 | 0.05 | 0.03 | 83 | 1004.9 |
| 20260506155120 | 11 | 229 | 17.7 | 32.2 | 0.03 | 0.05 | 0.03 | 83 | 1004.9 |
| 20260506155111 | 11 | 264 | 19.3 | 32.2 | 0.03 | 0.05 | 0.03 | 82 | 1004.6 |
| 20260506154756 | 11 | 283 | 19.3 | 32.2 | 0.03 | 0.05 | 0.03 | 82 | 1004.6 |
| 20260506154656 | 11 | 270 | 19.3 | 32.2 | 0.03 | 0.05 | 0.03 | 81 | 1004.5 |
| 20260506154557 | 11 | 302 | 20.9 | 32.2 | 0.03 | 0.05 | 0.03 | 81 | 1004.5 |
| 20260506154458 | 11 | 271 | 20.9 | 32.2 | 0.03 | 0.05 | 0.03 | 80 | 1004.5 |
| 20260506154401 | 12 | 263 | 20.9 | 37.0 | 0.03 | 0.05 | 0.03 | 80 | 1004.7 |
| 20260506154356 | 12 | 250 | 20.9 | 37.0 | 0.03 | 0.05 | 0.03 | 80 | 1004.6 |
| 20260506154256 | 12 | 268 | 20.9 | 37.0 | 0.03 | 0.05 | 0.03 | 79 | 1004.6 |
| 20260506154156 | 12 | 282 | 20.9 | 38.6 | 0.03 | 0.05 | 0.03 | 78 | 1004.6 |
| 20260506154054 | 12 | 263 | 20.9 | 38.6 | 0.03 | 0.05 | 0.03 | 77 | 1004.7 |
| 20260506153954 | 12 | 251 | 22.5 | 40.2 | 0.03 | 0.05 | 0.03 | 76 | 1004.6 |
| 20260506153900 | 13 | 276 | 22.5 | 40.2 | 0.03 | 0.05 | 0.00 | 75 | 1004.6 |
| 20260506153854 | 13 | 273 | 22.5 | 41.8 | 0.03 | 0.05 | 0.00 | 75 | 1004.6 |
| 20260506153752 | 13 | 292 | 24.1 | 41.8 | 0.00 | 0.03 | 0.00 | 74 | 1004.7 |
| 20260506153652 | 13 | 258 | 24.1 | 54.7 | 0.00 | 0.03 | 0.00 | 73 | 1004.6 |
| 20260506153552 | 13 | 277 | 24.1 | 54.7 | 0.00 | 0.03 | 0.00 | 70 | 1004.6 |
| 20260506153453 | 14 | 257 | 22.5 | 54.7 | 0.00 | 0.03 | 0.00 | 69 | 1004.5 |
| 20260506153401 | 14 | 265 | 22.5 | 54.7 | 0.00 | 0.03 | 0.00 | 67 | 1004.5 |
| 20260506153353 | 14 | 248 | 20.9 | 54.7 | 0.00 | 0.03 | 0.00 | 67 | 1004.5 |
| 20260506153253 | 15 | 243 | 20.9 | 54.7 | 0.00 | 0.03 | 0.00 | 66 | 1004.7 |
| 20260506153152 | 15 | 250 | 17.7 | 54.7 | 0.00 | 0.03 | 0.00 | 65 | 1004.5 |
| 20260506153052 | 15 | 283 | 16.1 | 54.7 | 0.00 | 0.03 | 0.00 | 63 | 1004.3 |
| 20260506152952 | 16 | 220 | 14.5 | 54.7 | 0.00 | 0.03 | 0.00 | 62 | 1004.5 |
| 20260506152900 | 16 | 286 | 14.5 | 54.7 | 0.00 | 0.03 | 0.00 | 62 | 1004.5 |
| 20260506152852 | 16 | 331 | 14.5 | 54.7 | 0.00 | 0.03 | 0.00 | 62 | 1004.7 |
| 20260506152752 | 16 | 234 | 11.3 | 54.7 | 0.00 | 0.03 | 0.00 | 62 | 1004.3 |
| 20260506152652 | 16 | 265 | 9.7 | 33.8 | 0.00 | 0.03 | 0.00 | 63 | 1003.7 |
| 20260506152628 | 17 | 227 | 8.0 | 17.7 | 0.00 | 0.03 | 0.00 | 62 | 1003.4 |
| 20260506152621 | 17 | 211 | 8.0 | 19.3 | 0.00 | 0.03 | 0.00 | 63 | 1003.7 |
| 20260506152617 | 17 | 219 | 8.0 | 17.7 | 0.00 | 0.03 | 0.00 | 62 | 1003.4 |
| 20260506152347 | 17 | 205 | 8.0 | 17.7 | 0.00 | 0.03 | 0.00 | 62 | 1003.3 |
| 20260506152246 | 17 | 220 | 8.0 | 17.7 | 0.00 | 0.03 | 0.00 | 62 | 1003.2 |
| 20260506152145 | 17 | 223 | 8.0 | 17.7 | 0.00 | 0.03 | 0.00 | 62 | 1003.3 |
| 20260506152042 | 17 | 234 | 8.0 | 17.7 | 0.00 | 0.03 | 0.00 | 62 | 1003.3 |
| 20260506151945 | 17 | 214 | 6.4 | 17.7 | 0.00 | 0.03 | 0.00 | 62 | 1003.2 |
| 20260506151901 | 17 | 210 | 6.4 | 17.7 | 0.00 | 0.03 | 0.00 | 62 | 1003.2 |
| 20260506151843 | 17 | 212 | 6.4 | 17.7 | 0.00 | 0.03 | 0.00 | 62 | 1003.2 |
| 20260506151742 | 17 | 219 | 6.4 | 16.1 | 0.00 | 0.03 | 0.00 | 62 | 1003.2 |
| 20260506151639 | 17 | 196 | 4.8 | 14.5 | 0.00 | 0.03 | 0.00 | 62 | 1003.1 |
| 20260506151541 | 17 | 203 | 4.8 | 14.5 | 0.00 | 0.03 | 0.00 | 61 | 1003.1 |
| 20260506151442 | 17 | 204 | 4.8 | 14.5 | 0.00 | 0.03 | 0.00 | 61 | 1003.1 |
| 20260506151401 | 17 | 148 | 4.8 | 14.5 | 0.00 | 0.03 | 0.00 | 62 | 1003.1 |
| 20260506151340 | 17 | 145 | 3.2 | 12.9 | 0.00 | 0.03 | 0.00 | 61 | 1003.0 |
| 20260506151240 | 17 | 126 | 3.2 | 12.9 | 0.00 | 0.03 | 0.00 | 62 | 1002.8 |
| 20260506151139 | 17 | 221 | 3.2 | 12.9 | 0.00 | 0.03 | 0.00 | 61 | 1002.8 |
| 20260506151125 | 17 | 192 | 3.2 | 12.9 | 0.00 | 0.03 | 0.00 | 61 | 1002.7 |
| 20260506151119 | 17 | 188 | 3.2 | 12.9 | 0.00 | 0.03 | 0.00 | 61 | 1002.7 |
| 20260506151115 | 17 | 191 | 3.2 | 12.9 | 0.00 | 0.03 | 0.00 | 61 | 1002.7 |
| 20260506150836 | 17 | 192 | 4.8 | 12.9 | 0.00 | 0.03 | 0.00 | 62 | 1002.6 |
| 20260506150734 | 17 | 132 | 4.8 | 11.3 | 0.00 | 0.03 | 0.00 | 63 | 1002.6 |
| 20260506150634 | 17 | 119 | 4.8 | 16.1 | 0.00 | 0.03 | 0.00 | 62 | 1002.6 |
| 20260506150533 | 17 | 120 | 4.8 | 16.1 | 0.00 | 0.03 | 0.00 | 63 | 1002.7 |
| 20260506150431 | 17 | 117 | 6.4 | 16.1 | 0.00 | 0.03 | 0.00 | 62 | 1002.6 |
| 20260506150400 | 17 | 117 | 6.4 | 16.1 | 0.00 | 0.03 | 0.00 | 63 | 1002.6 |
| 20260506150330 | 17 | 117 | 6.4 | 16.1 | 0.00 | 0.03 | 0.00 | 63 | 1002.6 |
| 20260506150229 | 17 | 196 | 4.8 | 16.1 | 0.00 | 0.03 | 0.00 | 64 | 1002.6 |
| 20260506150129 | 17 | 237 | 4.8 | 16.1 | 0.00 | 0.03 | 0.00 | 64 | 1002.7 |
| 20260506150029 | 17 | 236 | 4.8 | 16.1 | 0.00 | 0.03 | 0.00 | 64 | 1002.6 |
| 20260506145929 | 17 | 197 | 4.8 | 16.1 | 0.00 | 0.03 | 0.00 | 64 | 1002.7 |
| 20260506145902 | 17 | 197 | 4.8 | 16.1 | 0.00 | 0.03 | 0.00 | 63 | 1002.7 |
| 20260506145829 | 17 | 184 | 4.8 | 16.1 | 0.00 | 0.03 | 0.00 | 63 | 1002.7 |
| 20260506145729 | 17 | 150 | 4.8 | 16.1 | 0.00 | 0.03 | 0.00 | 64 | 1002.7 |
| 20260506145629 | 17 | 119 | 4.8 | 11.3 | 0.00 | 0.03 | 0.00 | 64 | 1002.7 |
| 20260506145530 | 17 | 190 | 4.8 | 11.3 | 0.00 | 0.03 | 0.00 | 65 | 1002.6 |
| 20260506145434 | 17 | 195 | 4.8 | 11.3 | 0.00 | 0.03 | 0.00 | 64 | 1002.7 |
| 20260506145402 | 17 | 202 | 4.8 | 11.3 | 0.00 | 0.03 | 0.00 | 65 | 1002.7 |
| 20260506145329 | 17 | 216 | 4.8 | 11.3 | 0.00 | 0.03 | 0.00 | 65 | 1002.7 |
| 20260506145229 | 17 | 200 | 6.4 | 16.1 | 0.00 | 0.03 | 0.00 | 66 | 1002.7 |
| 20260506145129 | 17 | 200 | 6.4 | 16.1 | 0.00 | 0.03 | 0.00 | 66 | 1002.7 |
| 20260506145125 | 16 | 205 | 6.4 | 16.1 | 0.00 | 0.03 | 0.00 | 65 | 1002.7 |
| 20260506145119 | 17 | 194 | 6.4 | 16.1 | 0.00 | 0.03 | 0.00 | 67 | 1002.7 |
| 20260506145115 | 17 | 172 | 6.4 | 16.1 | 0.00 | 0.03 | 0.00 | 66 | 1002.7 |
| 20260506144829 | 16 | 208 | 6.4 | 16.1 | 0.00 | 0.03 | 0.00 | 65 | 1002.7 |
| 20260506144729 | 16 | 198 | 6.4 | 16.1 | 0.00 | 0.03 | 0.00 | 66 | 1002.7 |
| 20260506144633 | 16 | 142 | 6.4 | 16.1 | 0.00 | 0.03 | 0.00 | 67 | 1002.7 |
| 20260506144628 | 16 | 177 | 6.4 | 16.1 | 0.00 | 0.03 | 0.00 | 68 | 1002.8 |
| 20260506144620 | 16 | 171 | 6.4 | 16.1 | 0.00 | 0.03 | 0.00 | 67 | 1002.8 |
| 20260506144616 | 16 | 153 | 6.4 | 16.1 | 0.00 | 0.03 | 0.00 | 67 | 1002.7 |
| 20260506144329 | 16 | 130 | 6.4 | 16.1 | 0.00 | 0.03 | 0.00 | 67 | 1002.7 |
| 20260506144229 | 16 | 169 | 4.8 | 11.3 | 0.00 | 0.03 | 0.00 | 68 | 1002.7 |
| 20260506144129 | 16 | 178 | 4.8 | 11.3 | 0.00 | 0.03 | 0.00 | 67 | 1002.7 |
| 20260506144028 | 16 | 153 | 4.8 | 11.3 | 0.00 | 0.03 | 0.00 | 68 | 1002.7 |
| 20260506143901 | 16 | 107 | 4.8 | 11.3 | 0.00 | 0.03 | 0.00 | 66 | 1002.6 |
| 20260506143828 | 16 | 124 | 3.2 | 11.3 | 0.00 | 0.03 | 0.00 | 67 | 1002.6 |
| 20260506143728 | 16 | 140 | 3.2 | 9.7 | 0.00 | 0.03 | 0.00 | 67 | 1002.6 |
| 20260506143628 | 16 | 131 | 3.2 | 9.7 | 0.00 | 0.03 | 0.00 | 66 | 1002.6 |
| 20260506143528 | 16 | 127 | 3.2 | 9.7 | 0.00 | 0.03 | 0.00 | 66 | 1002.6 |
| 20260506143429 | 16 | 137 | 1.6 | 8.0 | 0.00 | 0.03 | 0.00 | 68 | 1002.6 |
| 20260506143400 | 16 | 128 | 1.6 | 8.0 | 0.00 | 0.03 | 0.00 | 68 | 1002.6 |
| 20260506143328 | 16 | 123 | 1.6 | 8.0 | 0.00 | 0.03 | 0.00 | 69 | 1002.6 |
| 20260506143225 | 16 | 115 | 1.6 | 8.0 | 0.00 | 0.03 | 0.00 | 69 | 1002.6 |
| 20260506143124 | 16 | 146 | 1.6 | 8.0 | 0.00 | 0.03 | 0.00 | 70 | 1002.6 |
| 20260506143024 | 16 | 165 | 1.6 | 8.0 | 0.00 | 0.03 | 0.00 | 69 | 1002.7 |
| 20260506142922 | 16 | 165 | 1.6 | 8.0 | 0.00 | 0.03 | 0.00 | 69 | 1002.7 |
| 20260506142906 | 16 | 166 | 1.6 | 8.0 | 0.00 | 0.03 | 0.00 | 70 | 1002.7 |
| 20260506142822 | 16 | 166 | 1.6 | 8.0 | 0.00 | 0.03 | 0.00 | 70 | 1002.7 |
| 20260506142722 | 16 | 166 | 1.6 | 8.0 | 0.00 | 0.03 | 0.00 | 69 | 1002.7 |
| 20260506142620 | 16 | 166 | 1.6 | 8.0 | 0.00 | 0.03 | 0.00 | 70 | 1002.7 |
| 20260506142518 | 15 | 162 | 1.6 | 8.0 | 0.00 | 0.03 | 0.00 | 72 | 1002.7 |
| 20260506142402 | 15 | 292 | 3.2 | 11.3 | 0.00 | 0.03 | 0.00 | 71 | 1002.7 |
| 20260506142316 | 15 | 292 | 3.2 | 11.3 | 0.00 | 0.03 | 0.00 | 71 | 1002.7 |
| 20260506142213 | 15 | 292 | 3.2 | 11.3 | 0.00 | 0.03 | 0.00 | 69 | 1002.6 |
| 20260506142114 | 15 | 292 | 4.8 | 14.5 | 0.00 | 0.03 | 0.00 | 69 | 1002.7 |
| 20260506142012 | 15 | 292 | 4.8 | 14.5 | 0.00 | 0.03 | 0.00 | 69 | 1002.6 |
| 20260506141910 | 15 | 292 | 6.4 | 14.5 | 0.00 | 0.03 | 0.00 | 69 | 1002.6 |
| 20260506141901 | 15 | 285 | 6.4 | 14.5 | 0.00 | 0.03 | 0.00 | 71 | 1002.6 |
| 20260506141810 | 15 | 285 | 6.4 | 14.5 | 0.00 | 0.03 | 0.00 | 68 | 1002.7 |
| 20260506141707 | 15 | 140 | 6.4 | 14.5 | 0.00 | 0.03 | 0.00 | 69 | 1002.8 |
| 20260506141606 | 15 | 140 | 6.4 | 14.5 | 0.00 | 0.03 | 0.00 | 69 | 1003.0 |
| 20260506141506 | 15 | 227 | 6.4 | 14.5 | 0.00 | 0.03 | 0.00 | 70 | 1003.1 |
| 20260506141405 | 15 | 223 | 6.4 | 14.5 | 0.00 | 0.03 | 0.00 | 70 | 1003.2 |
| 20260506141401 | 15 | 227 | 6.4 | 14.5 | 0.00 | 0.03 | 0.00 | 70 | 1003.2 |
| 20260506141304 | 15 | 234 | 6.4 | 16.1 | 0.00 | 0.03 | 0.00 | 69 | 1003.3 |
| 20260506141204 | 15 | 237 | 6.4 | 16.1 | 0.00 | 0.03 | 0.00 | 69 | 1003.3 |
| 20260506141104 | 15 | 249 | 6.4 | 16.1 | 0.00 | 0.03 | 0.00 | 69 | 1003.4 |
| 20260506141004 | 15 | 205 | 6.4 | 16.1 | 0.00 | 0.03 | 0.00 | 69 | 1003.4 |
| 20260506140901 | 15 | 205 | 6.4 | 16.1 | 0.00 | 0.03 | 0.00 | 68 | 1003.4 |
| 20260506140804 | 15 | 223 | 6.4 | 16.1 | 0.00 | 0.03 | 0.00 | 68 | 1003.5 |
| 20260506140704 | 15 | 225 | 6.4 | 16.1 | 0.00 | 0.03 | 0.00 | 67 | 1003.4 |
| 20260506140620 | 15 | 236 | 6.4 | 16.1 | 0.00 | 0.03 | 0.00 | 67 | 1003.4 |
| 20260506140616 | 15 | 192 | 8.0 | 16.1 | 0.00 | 0.03 | 0.00 | 68 | 1003.3 |
| 20260506140612 | 15 | 207 | 8.0 | 16.1 | 0.00 | 0.03 | 0.00 | 68 | 1003.3 |
| 20260506140302 | 15 | 238 | 8.0 | 16.1 | 0.00 | 0.03 | 0.00 | 67 | 1003.3 |
| 20260506140202 | 15 | 178 | 8.0 | 16.1 | 0.00 | 0.03 | 0.00 | 66 | 1003.2 |
| 20260506140002 | 15 | 193 | 8.0 | 16.1 | 0.00 | 0.03 | 0.00 | 66 | 1003.3 |
| 20260506135901 | 15 | 169 | 6.4 | 16.1 | 0.00 | 0.03 | 0.00 | 67 | 1003.2 |
| 20260506135801 | 15 | 154 | 6.4 | 16.1 | 0.00 | 0.03 | 0.00 | 69 | 1003.3 |
| 20260506135701 | 15 | 129 | 6.4 | 16.1 | 0.00 | 0.03 | 0.00 | 67 | 1003.3 |
| 20260506135601 | 15 | 211 | 6.4 | 16.1 | 0.00 | 0.03 | 0.00 | 66 | 1003.2 |
| 20260506135501 | 15 | 167 | 6.4 | 14.5 | 0.00 | 0.03 | 0.00 | 68 | 1003.3 |
| 20260506135401 | 15 | 169 | 6.4 | 12.9 | 0.00 | 0.03 | 0.00 | 69 | 1003.3 |
| 20260506135301 | 15 | 209 | 6.4 | 19.3 | 0.00 | 0.03 | 0.00 | 69 | 1003.3 |
| 20260506135200 | 15 | 136 | 6.4 | 19.3 | 0.00 | 0.03 | 0.00 | 70 | 1003.3 |
| 20260506135100 | 15 | 173 | 6.4 | 19.3 | 0.00 | 0.03 | 0.00 | 70 | 1003.4 |
| 20260506135001 | 15 | 190 | 6.4 | 19.3 | 0.00 | 0.03 | 0.00 | 69 | 1003.4 |
| 20260506134903 | 15 | 177 | 8.0 | 19.3 | 0.00 | 0.03 | 0.00 | 68 | 1003.5 |
| 20260506134801 | 15 | 187 | 8.0 | 19.3 | 0.00 | 0.03 | 0.00 | 70 | 1003.5 |
| 20260506134700 | 15 | 193 | 8.0 | 19.3 | 0.00 | 0.03 | 0.00 | 69 | 1003.6 |
| 20260506134600 | 15 | 187 | 8.0 | 19.3 | 0.00 | 0.03 | 0.00 | 69 | 1003.6 |
| 20260506134500 | 15 | 181 | 8.0 | 19.3 | 0.00 | 0.03 | 0.00 | 68 | 1003.6 |
| 20260506134401 | 15 | 195 | 6.4 | 19.3 | 0.00 | 0.03 | 0.00 | 67 | 1003.5 |
| 20260506134301 | 15 | 175 | 6.4 | 17.7 | 0.00 | 0.03 | 0.00 | 67 | 1003.5 |
| 20260506134201 | 15 | 221 | 6.4 | 17.7 | 0.00 | 0.03 | 0.00 | 67 | 1003.5 |
| 20260506134101 | 15 | 153 | 4.8 | 17.7 | 0.00 | 0.03 | 0.00 | 66 | 1003.5 |
| 20260506134001 | 15 | 142 | 4.8 | 16.1 | 0.00 | 0.03 | 0.00 | 67 | 1003.5 |
| 20260506133901 | 15 | 158 | 4.8 | 16.1 | 0.00 | 0.03 | 0.00 | 68 | 1003.5 |
| 20260506133800 | 15 | 125 | 3.2 | 16.1 | 0.00 | 0.03 | 0.00 | 69 | 1003.5 |
| 20260506133701 | 15 | 119 | 1.6 | 6.4 | 0.00 | 0.03 | 0.00 | 69 | 1003.5 |
| 20260506133601 | 15 | 121 | 1.6 | 6.4 | 0.00 | 0.03 | 0.00 | 68 | 1003.5 |
| 20260506133501 | 15 | 132 | 1.6 | 4.8 | 0.00 | 0.03 | 0.00 | 69 | 1003.4 |
| 20260506133403 | 15 | 134 | 1.6 | 4.8 | 0.00 | 0.03 | 0.00 | 69 | 1003.4 |
| 20260506133301 | 15 | 134 | 1.6 | 4.8 | 0.00 | 0.03 | 0.00 | 68 | 1003.4 |
| 20260506133201 | 15 | 131 | 1.6 | 4.8 | 0.00 | 0.03 | 0.00 | 68 | 1003.4 |
| 20260506133121 | 15 | 132 | 1.6 | 4.8 | 0.00 | 0.03 | 0.00 | 69 | 1003.4 |
| 20260506133117 | 15 | 179 | 1.6 | 4.8 | 0.00 | 0.03 | 0.00 | 71 | 1003.4 |
| 20260506133113 | 15 | 179 | 1.6 | 4.8 | 0.00 | 0.03 | 0.00 | 69 | 1003.4 |
| 20260506132851 | 15 | 179 | 3.2 | 9.7 | 0.00 | 0.03 | 0.00 | 69 | 1003.3 |
| 20260506132843 | 15 | 179 | 1.6 | 4.8 | 0.00 | 0.03 | 0.00 | 69 | 1003.4 |
| 20260506132839 | 15 | 179 | 1.6 | 6.4 | 0.00 | 0.03 | 0.00 | 69 | 1003.4 |
| 20260506132620 | 15 | 179 | 3.2 | 9.7 | 0.00 | 0.03 | 0.00 | 69 | 1003.4 |
| 20260506132616 | 15 | 179 | 3.2 | 9.7 | 0.00 | 0.03 | 0.00 | 70 | 1003.3 |
| 20260506132612 | 15 | 179 | 3.2 | 9.7 | 0.00 | 0.03 | 0.00 | 69 | 1003.3 |
| 20260506132301 | 15 | 180 | 3.2 | 9.7 | 0.00 | 0.03 | 0.00 | 69 | 1003.3 |
| 20260506132201 | 15 | 180 | 3.2 | 9.7 | 0.00 | 0.03 | 0.00 | 68 | 1003.3 |
| 20260506132101 | 15 | 180 | 3.2 | 9.7 | 0.00 | 0.03 | 0.00 | 68 | 1003.3 |
| 20260506132001 | 15 | 179 | 3.2 | 9.7 | 0.00 | 0.03 | 0.00 | 68 | 1003.3 |
| 20260506131900 | 15 | 179 | 3.2 | 9.7 | 0.00 | 0.03 | 0.00 | 68 | 1003.3 |
| 20260506131801 | 15 | 179 | 3.2 | 9.7 | 0.00 | 0.03 | 0.00 | 68 | 1003.3 |
| 20260506131701 | 15 | 179 | 3.2 | 9.7 | 0.00 | 0.03 | 0.00 | 67 | 1003.3 |
| 20260506131601 | 15 | 186 | 3.2 | 8.0 | 0.00 | 0.03 | 0.00 | 67 | 1003.3 |
| 20260506131501 | 15 | 165 | 1.6 | 8.0 | 0.00 | 0.03 | 0.00 | 67 | 1003.3 |
| 20260506131401 | 15 | 165 | 1.6 | 8.0 | 0.00 | 0.03 | 0.00 | 67 | 1003.3 |
| 20260506131304 | 15 | 166 | 1.6 | 8.0 | 0.00 | 0.03 | 0.00 | 67 | 1003.2 |
| 20260506131200 | 15 | 166 | 1.6 | 8.0 | 0.00 | 0.03 | 0.00 | 67 | 1003.2 |
| 20260506131101 | 15 | 166 | 1.6 | 8.0 | 0.00 | 0.03 | 0.00 | 67 | 1003.1 |
| 20260506131001 | 15 | 150 | 1.6 | 8.0 | 0.00 | 0.03 | 0.00 | 66 | 1003.1 |
| 20260506130901 | 15 | 150 | 1.6 | 6.4 | 0.00 | 0.03 | 0.00 | 67 | 1003.0 |
| 20260506130804 | 15 | 121 | 1.6 | 6.4 | 0.00 | 0.03 | 0.00 | 66 | 1003.0 |
| 20260506130700 | 15 | 104 | 1.6 | 6.4 | 0.00 | 0.03 | 0.00 | 65 | 1002.8 |
| 20260506130621 | 16 | 103 | 1.6 | 6.4 | 0.00 | 0.03 | 0.00 | 65 | 1002.8 |
| 20260506130617 | 16 | 103 | 1.6 | 6.4 | 0.00 | 0.03 | 0.00 | 65 | 1002.7 |
| 20260506130613 | 16 | 103 | 1.6 | 6.4 | 0.00 | 0.03 | 0.00 | 66 | 1002.7 |
| 20260506130301 | 16 | 103 | 1.6 | 6.4 | 0.00 | 0.03 | 0.00 | 66 | 1002.7 |
| 20260506130201 | 16 | 100 | 1.6 | 6.4 | 0.00 | 0.03 | 0.00 | 67 | 1002.7 |
| 20260506130120 | 16 | 130 | 1.6 | 6.4 | 0.00 | 0.03 | 0.00 | 67 | 1002.7 |
| 20260506130116 | 16 | 132 | 1.6 | 6.4 | 0.00 | 0.03 | 0.00 | 66 | 1002.6 |
| 20260506130112 | 16 | 132 | 1.6 | 6.4 | 0.00 | 0.03 | 0.00 | 67 | 1002.6 |
| 20260506125801 | 16 | 75 | 1.6 | 6.4 | 0.00 | 0.03 | 0.00 | 66 | 1002.6 |
| 20260506125701 | 16 | 88 | 1.6 | 6.4 | 0.00 | 0.03 | 0.00 | 65 | 1002.6 |
| 20260506125601 | 16 | 98 | 1.6 | 6.4 | 0.00 | 0.03 | 0.00 | 65 | 1002.6 |
| 20260506125501 | 16 | 93 | 1.6 | 6.4 | 0.00 | 0.03 | 0.00 | 65 | 1002.7 |
| 20260506125401 | 16 | 93 | 1.6 | 6.4 | 0.00 | 0.03 | 0.00 | 64 | 1002.6 |
| 20260506125301 | 16 | 93 | 1.6 | 6.4 | 0.00 | 0.03 | 0.00 | 65 | 1002.6 |
| 20260506125201 | 16 | 93 | 1.6 | 6.4 | 0.00 | 0.03 | 0.00 | 64 | 1002.6 |
| 20260506125101 | 16 | 91 | 1.6 | 6.4 | 0.00 | 0.03 | 0.00 | 63 | 1002.6 |
| 20260506125000 | 16 | 91 | 1.6 | 6.4 | 0.00 | 0.03 | 0.00 | 62 | 1002.6 |
| 20260506124900 | 16 | 92 | 1.6 | 6.4 | 0.00 | 0.03 | 0.00 | 62 | 1002.6 |
| 20260506124853 | 16 | 109 | 1.6 | 4.8 | 0.00 | 0.03 | 0.00 | 61 | 1002.7 |
| 20260506124848 | 16 | 90 | 1.6 | 6.4 | 0.00 | 0.03 | 0.00 | 62 | 1002.6 |
| 20260506124839 | 16 | 94 | 1.6 | 6.4 | 0.00 | 0.03 | 0.00 | 60 | 1002.6 |
| 20260506124619 | 16 | 94 | 1.6 | 6.4 | 0.00 | 0.03 | 0.00 | 60 | 1002.6 |
| 20260506124615 | 16 | 106 | 1.6 | 4.8 | 0.00 | 0.03 | 0.00 | 60 | 1002.6 |
| 20260506124611 | 16 | 109 | 1.6 | 4.8 | 0.00 | 0.03 | 0.00 | 61 | 1002.7 |
| 20260506124300 | 16 | 109 | 0.0 | 4.8 | 0.00 | 0.03 | 0.00 | 62 | 1002.7 |
| 20260506124200 | 16 | 109 | 0.0 | 4.8 | 0.00 | 0.03 | 0.00 | 61 | 1002.7 |
| 20260506124122 | 16 | 119 | 0.0 | 3.2 | 0.00 | 0.03 | 0.00 | 60 | 1002.7 |
| 20260506124118 | 16 | 106 | 0.0 | 3.2 | 0.00 | 0.03 | 0.00 | 61 | 1002.8 |
| 20260506124114 | 16 | 107 | 0.0 | 3.2 | 0.00 | 0.03 | 0.00 | 62 | 1002.8 |
| 20260506123801 | 16 | 110 | 0.0 | 3.2 | 0.00 | 0.03 | 0.00 | 62 | 1002.8 |
| 20260506123700 | 16 | 111 | 0.0 | 3.2 | 0.00 | 0.03 | 0.00 | 62 | 1002.8 |
| 20260506123600 | 16 | 111 | 0.0 | 4.8 | 0.00 | 0.03 | 0.00 | 60 | 1002.8 |
| 20260506123500 | 16 | 111 | 1.6 | 4.8 | 0.00 | 0.03 | 0.00 | 60 | 1002.8 |
| 20260506123401 | 16 | 111 | 1.6 | 6.4 | 0.00 | 0.03 | 0.00 | 61 | 1002.8 |
| 20260506123301 | 16 | 111 | 1.6 | 6.4 | 0.00 | 0.03 | 0.00 | 61 | 1002.8 |
| 20260506123202 | 16 | 112 | 1.6 | 6.4 | 0.00 | 0.03 | 0.00 | 61 | 1003.0 |
| 20260506123101 | 17 | 111 | 1.6 | 6.4 | 0.00 | 0.03 | 0.00 | 61 | 1002.8 |
| 20260506123001 | 16 | 112 | 1.6 | 6.4 | 0.00 | 0.03 | 0.00 | 61 | 1002.8 |
| 20260506122901 | 17 | 112 | 1.6 | 6.4 | 0.00 | 0.03 | 0.00 | 60 | 1002.8 |
| 20260506122801 | 17 | 112 | 1.6 | 6.4 | 0.00 | 0.03 | 0.00 | 60 | 1002.8 |
| 20260506122701 | 17 | 112 | 1.6 | 6.4 | 0.00 | 0.03 | 0.00 | 60 | 1002.8 |
| 20260506122601 | 17 | 111 | 1.6 | 6.4 | 0.00 | 0.03 | 0.00 | 60 | 1002.8 |
| 20260506122501 | 17 | 88 | 1.6 | 6.4 | 0.00 | 0.03 | 0.00 | 59 | 1002.8 |
| 20260506122402 | 17 | 69 | 1.6 | 6.4 | 0.00 | 0.03 | 0.00 | 59 | 1003.0 |
| 20260506122301 | 17 | 68 | 1.6 | 6.4 | 0.00 | 0.03 | 0.00 | 58 | 1003.0 |
| 20260506122201 | 17 | 68 | 1.6 | 6.4 | 0.00 | 0.03 | 0.00 | 59 | 1003.0 |
| 20260506122101 | 17 | 68 | 1.6 | 6.4 | 0.00 | 0.03 | 0.00 | 59 | 1002.8 |
| 20260506122001 | 17 | 67 | 1.6 | 6.4 | 0.00 | 0.03 | 0.00 | 58 | 1003.0 |
| 20260506121901 | 17 | 65 | 1.6 | 6.4 | 0.00 | 0.03 | 0.00 | 58 | 1003.0 |
| 20260506121801 | 17 | 65 | 1.6 | 6.4 | 0.00 | 0.03 | 0.00 | 58 | 1003.0 |
| 20260506121700 | 17 | 65 | 1.6 | 6.4 | 0.00 | 0.03 | 0.00 | 58 | 1003.0 |
| 20260506121600 | 17 | 65 | 1.6 | 8.0 | 0.00 | 0.03 | 0.00 | 58 | 1003.1 |
| 20260506121500 | 17 | 88 | 1.6 | 9.7 | 0.00 | 0.03 | 0.00 | 58 | 1003.1 |
| 20260506121400 | 17 | 90 | 1.6 | 9.7 | 0.00 | 0.03 | 0.00 | 59 | 1003.1 |
| 20260506121301 | 17 | 90 | 1.6 | 9.7 | 0.00 | 0.03 | 0.00 | 59 | 1003.1 |
| 20260506121159 | 17 | 91 | 1.6 | 9.7 | 0.00 | 0.03 | 0.00 | 59 | 1003.1 |
| 20260506121059 | 17 | 91 | 1.6 | 9.7 | 0.00 | 0.03 | 0.00 | 58 | 1003.1 |
| 20260506121000 | 17 | 91 | 1.6 | 9.7 | 0.00 | 0.03 | 0.00 | 60 | 1003.1 |
| 20260506120902 | 17 | 91 | 1.6 | 9.7 | 0.00 | 0.03 | 0.00 | 59 | 1003.1 |
| 20260506120858 | 17 | 91 | 1.6 | 9.7 | 0.00 | 0.03 | 0.00 | 59 | 1003.1 |
| 20260506120756 | 17 | 64 | 1.6 | 9.7 | 0.00 | 0.03 | 0.00 | 58 | 1003.1 |
| 20260506120650 | 17 | 83 | 1.6 | 9.7 | 0.00 | 0.03 | 0.00 | 59 | 1003.1 |
| 20260506120550 | 17 | 80 | 1.6 | 9.7 | 0.00 | 0.03 | 0.00 | 60 | 1003.1 |
| 20260506120449 | 17 | 87 | 1.6 | 6.4 | 0.00 | 0.03 | 0.00 | 58 | 1003.0 |
| 20260506120402 | 17 | 87 | 1.6 | 6.4 | 0.00 | 0.03 | 0.00 | 58 | 1003.0 |
| 20260506120349 | 17 | 87 | 1.6 | 6.4 | 0.00 | 0.03 | 0.00 | 58 | 1003.0 |
| 20260506120249 | 17 | 87 | 1.6 | 6.4 | 0.00 | 0.03 | 0.00 | 58 | 1003.0 |
| 20260506120144 | 17 | 87 | 1.6 | 6.4 | 0.00 | 0.03 | 0.00 | 58 | 1002.8 |
| 20260506120044 | 17 | 87 | 3.2 | 8.0 | 0.00 | 0.03 | 0.00 | 59 | 1002.8 |
| 20260506115944 | 17 | 86 | 3.2 | 8.0 | 0.00 | 0.03 | 0.00 | 58 | 1002.8 |
| 20260506115903 | 17 | 86 | 3.2 | 8.0 | 0.00 | 0.03 | 0.00 | 57 | 1002.8 |
| 20260506115844 | 17 | 86 | 3.2 | 8.0 | 0.00 | 0.03 | 0.00 | 57 | 1003.0 |
| 20260506115744 | 17 | 86 | 3.2 | 8.0 | 0.00 | 0.03 | 0.00 | 58 | 1003.0 |
| 20260506115641 | 17 | 84 | 3.2 | 8.0 | 0.00 | 0.03 | 0.00 | 58 | 1003.1 |
| 20260506115625 | 17 | 88 | 3.2 | 8.0 | 0.00 | 0.03 | 0.00 | 57 | 1003.1 |
| 20260506115617 | 17 | 53 | 3.2 | 8.0 | 0.00 | 0.03 | 0.00 | 57 | 1003.1 |
| 20260506115613 | 17 | 28 | 3.2 | 8.0 | 0.00 | 0.03 | 0.00 | 57 | 1003.1 |
| 20260506115340 | 17 | 88 | 3.2 | 8.0 | 0.00 | 0.03 | 0.00 | 57 | 1003.1 |
| 20260506115240 | 17 | 89 | 3.2 | 8.0 | 0.00 | 0.03 | 0.00 | 57 | 1003.1 |
| 20260506115140 | 17 | 44 | 3.2 | 8.0 | 0.00 | 0.03 | 0.00 | 58 | 1003.1 |
| 20260506115040 | 17 | 115 | 3.2 | 8.0 | 0.00 | 0.03 | 0.00 | 58 | 1003.0 |
| 20260506114937 | 17 | 114 | 3.2 | 8.0 | 0.00 | 0.03 | 0.00 | 58 | 1003.0 |
| 20260506114903 | 17 | 93 | 3.2 | 9.7 | 0.00 | 0.03 | 0.00 | 58 | 1003.0 |
| 20260506114838 | 17 | 69 | 3.2 | 9.7 | 0.00 | 0.03 | 0.00 | 58 | 1003.0 |
| 20260506114738 | 17 | 85 | 3.2 | 9.7 | 0.00 | 0.03 | 0.00 | 57 | 1002.8 |
| 20260506114638 | 17 | 75 | 3.2 | 9.7 | 0.00 | 0.03 | 0.00 | 59 | 1003.0 |
| 20260506114538 | 17 | 22 | 3.2 | 9.7 | 0.00 | 0.03 | 0.00 | 58 | 1003.0 |
| 20260506114435 | 17 | 62 | 3.2 | 9.7 | 0.00 | 0.03 | 0.00 | 59 | 1003.0 |
| 20260506114401 | 17 | 34 | 3.2 | 9.7 | 0.00 | 0.03 | 0.00 | 57 | 1003.0 |
| 20260506114335 | 17 | 28 | 3.2 | 9.7 | 0.00 | 0.03 | 0.00 | 57 | 1003.0 |
| 20260506114236 | 17 | 28 | 3.2 | 9.7 | 0.00 | 0.03 | 0.00 | 57 | 1003.1 |
| 20260506114136 | 17 | 80 | 3.2 | 9.7 | 0.00 | 0.03 | 0.00 | 57 | 1003.1 |
| 20260506114036 | 17 | 80 | 3.2 | 9.7 | 0.00 | 0.03 | 0.00 | 57 | 1003.1 |
| 20260506113936 | 17 | 80 | 3.2 | 9.7 | 0.00 | 0.03 | 0.00 | 57 | 1003.1 |
| 20260506113901 | 17 | 9 | 3.2 | 9.7 | 0.00 | 0.03 | 0.00 | 57 | 1003.2 |
| 20260506113833 | 17 | 27 | 3.2 | 9.7 | 0.00 | 0.03 | 0.00 | 57 | 1003.2 |
| 20260506113733 | 17 | 98 | 3.2 | 9.7 | 0.00 | 0.03 | 0.00 | 57 | 1003.2 |
| 20260506113631 | 17 | 98 | 3.2 | 9.7 | 0.00 | 0.03 | 0.00 | 59 | 1003.2 |
| 20260506113529 | 17 | 97 | 3.2 | 9.7 | 0.00 | 0.03 | 0.00 | 57 | 1003.2 |
| 20260506113429 | 17 | 96 | 3.2 | 9.7 | 0.00 | 0.03 | 0.00 | 57 | 1003.2 |
| 20260506113329 | 17 | 26 | 3.2 | 9.7 | 0.00 | 0.03 | 0.00 | 57 | 1003.2 |
| 20260506113229 | 17 | 26 | 3.2 | 9.7 | 0.00 | 0.03 | 0.00 | 58 | 1003.2 |
| 20260506113129 | 17 | 39 | 3.2 | 9.7 | 0.00 | 0.03 | 0.00 | 58 | 1003.2 |
| 20260506113029 | 17 | 87 | 3.2 | 9.7 | 0.00 | 0.03 | 0.00 | 58 | 1003.2 |
| 20260506112929 | 17 | 59 | 1.6 | 9.7 | 0.00 | 0.03 | 0.00 | 59 | 1003.2 |
| 20260506112850 | 17 | 42 | 1.6 | 8.0 | 0.00 | 0.03 | 0.00 | 59 | 1003.2 |
| 20260506112829 | 17 | 73 | 1.6 | 4.8 | 0.00 | 0.03 | 0.00 | 59 | 1003.2 |
| 20260506112729 | 17 | 53 | 1.6 | 4.8 | 0.00 | 0.03 | 0.00 | 59 | 1003.2 |
| 20260506112629 | 17 | 28 | 1.6 | 4.8 | 0.00 | 0.03 | 0.00 | 59 | 1003.2 |
| 20260506112528 | 17 | 122 | 1.6 | 4.8 | 0.00 | 0.03 | 0.00 | 60 | 1003.2 |
| 20260506112429 | 17 | 122 | 1.6 | 4.8 | 0.00 | 0.03 | 0.00 | 58 | 1003.3 |
| 20260506112329 | 17 | 126 | 1.6 | 6.4 | 0.00 | 0.03 | 0.00 | 58 | 1003.3 |
| 20260506112229 | 17 | 123 | 1.6 | 6.4 | 0.00 | 0.03 | 0.00 | 57 | 1003.3 |
| 20260506112129 | 17 | 126 | 1.6 | 6.4 | 0.00 | 0.03 | 0.00 | 58 | 1003.3 |
| 20260506112029 | 17 | 126 | 1.6 | 6.4 | 0.00 | 0.03 | 0.00 | 58 | 1003.3 |
| 20260506111929 | 17 | 73 | 1.6 | 6.4 | 0.00 | 0.03 | 0.00 | 58 | 1003.3 |
| 20260506111840 | 17 | 74 | 3.2 | 9.7 | 0.00 | 0.03 | 0.00 | 58 | 1003.3 |
| 20260506111829 | 17 | 73 | 3.2 | 9.7 | 0.00 | 0.03 | 0.00 | 58 | 1003.3 |
| 20260506111729 | 17 | 74 | 3.2 | 9.7 | 0.00 | 0.03 | 0.00 | 59 | 1003.3 |
| 20260506111629 | 17 | 88 | 3.2 | 9.7 | 0.00 | 0.03 | 0.00 | 58 | 1003.3 |
| 20260506111604 | 17 | 78 | 3.2 | 16.1 | 0.00 | 0.03 | 0.00 | 57 | 1003.2 |
| 20260506111554 | 17 | 94 | 3.2 | 9.7 | 0.00 | 0.03 | 0.00 | 55 | 1003.2 |
| 20260506111551 | 17 | 94 | 3.2 | 16.1 | 0.00 | 0.03 | 0.00 | 57 | 1003.2 |
| 20260506111329 | 17 | 78 | 3.2 | 16.1 | 0.00 | 0.03 | 0.00 | 57 | 1003.2 |
| 20260506111227 | 17 | 338 | 3.2 | 16.1 | 0.00 | 0.03 | 0.00 | 56 | 1003.2 |
| 20260506111128 | 17 | 113 | 4.8 | 16.1 | 0.00 | 0.03 | 0.00 | 57 | 1003.2 |
| 20260506111027 | 17 | 92 | 4.8 | 17.7 | 0.00 | 0.03 | 0.00 | 58 | 1003.2 |
| 20260506110927 | 17 | 97 | 4.8 | 17.7 | 0.00 | 0.03 | 0.00 | 57 | 1003.2 |
| 20260506110839 | 17 | 86 | 4.8 | 17.7 | 0.00 | 0.03 | 0.00 | 57 | 1003.2 |
| 20260506110825 | 17 | 103 | 4.8 | 17.7 | 0.00 | 0.03 | 0.00 | 57 | 1003.2 |
| 20260506110724 | 17 | 103 | 4.8 | 17.7 | 0.00 | 0.03 | 0.00 | 59 | 1003.2 |
| 20260506110624 | 17 | 95 | 4.8 | 17.7 | 0.00 | 0.03 | 0.00 | 57 | 1003.2 |
| 20260506110524 | 17 | 105 | 4.8 | 17.7 | 0.00 | 0.03 | 0.00 | 58 | 1003.2 |
| 20260506110422 | 17 | 97 | 4.8 | 17.7 | 0.00 | 0.03 | 0.00 | 60 | 1003.2 |
| 20260506110340 | 17 | 77 | 4.8 | 17.7 | 0.00 | 0.03 | 0.00 | 60 | 1003.2 |
| 20260506110321 | 17 | 103 | 4.8 | 17.7 | 0.00 | 0.03 | 0.00 | 60 | 1003.2 |
| 20260506110221 | 17 | 71 | 4.8 | 17.7 | 0.00 | 0.03 | 0.00 | 60 | 1003.1 |
| 20260506110122 | 17 | 51 | 4.8 | 17.7 | 0.00 | 0.03 | 0.00 | 60 | 1003.1 |
| 20260506110022 | 17 | 127 | 3.2 | 12.9 | 0.00 | 0.03 | 0.00 | 58 | 1003.2 |
| 20260506105920 | 17 | 100 | 4.8 | 12.9 | 0.00 | 0.03 | 0.00 | 58 | 1003.2 |
| 20260506105840 | 17 | 107 | 4.8 | 12.9 | 0.00 | 0.03 | 0.00 | 60 | 1003.2 |
| 20260506105819 | 17 | 146 | 4.8 | 12.9 | 0.00 | 0.03 | 0.00 | 59 | 1003.2 |
| 20260506105717 | 17 | 99 | 4.8 | 9.7 | 0.00 | 0.03 | 0.00 | 59 | 1003.2 |
| 20260506105617 | 17 | 108 | 4.8 | 9.7 | 0.00 | 0.03 | 0.00 | 59 | 1003.2 |
| 20260506105516 | 17 | 37 | 4.8 | 9.7 | 0.00 | 0.03 | 0.00 | 58 | 1003.2 |
| 20260506105416 | 17 | 96 | 4.8 | 11.3 | 0.00 | 0.03 | 0.00 | 57 | 1003.2 |
| 20260506105340 | 17 | 63 | 4.8 | 11.3 | 0.00 | 0.03 | 0.00 | 59 | 1003.2 |
| 20260506105316 | 17 | 74 | 4.8 | 16.1 | 0.00 | 0.03 | 0.00 | 58 | 1003.2 |
| 20260506105216 | 17 | 71 | 6.4 | 16.1 | 0.00 | 0.03 | 0.00 | 59 | 1003.2 |
| 20260506105115 | 17 | 82 | 4.8 | 16.1 | 0.00 | 0.03 | 0.00 | 60 | 1003.2 |
| 20260506105102 | 17 | 0 | 4.8 | 16.1 | 0.00 | 0.03 | 0.00 | 60 | 1003.3 |
| 20260506105055 | 17 | 63 | 6.4 | 16.1 | 0.00 | 0.03 | 0.00 | 61 | 1003.3 |
| 20260506105051 | 17 | 51 | 6.4 | 16.1 | 0.00 | 0.03 | 0.00 | 62 | 1003.3 |
| 20260506104812 | 17 | 337 | 4.8 | 16.1 | 0.00 | 0.03 | 0.00 | 60 | 1003.3 |
| 20260506104711 | 17 | 15 | 6.4 | 16.1 | 0.00 | 0.03 | 0.00 | 59 | 1003.3 |
| 20260506104609 | 17 | 69 | 6.4 | 16.1 | 0.00 | 0.03 | 0.00 | 59 | 1003.3 |
| 20260506104509 | 17 | 44 | 4.8 | 16.1 | 0.00 | 0.03 | 0.00 | 61 | 1003.3 |
| 20260506104410 | 17 | 35 | 4.8 | 16.1 | 0.00 | 0.03 | 0.00 | 61 | 1003.3 |
| 20260506104339 | 17 | 54 | 4.8 | 16.1 | 0.00 | 0.03 | 0.00 | 62 | 1003.3 |
| 20260506104310 | 17 | 28 | 4.8 | 16.1 | 0.00 | 0.03 | 0.00 | 62 | 1003.3 |
| 20260506104209 | 17 | 24 | 4.8 | 16.1 | 0.00 | 0.03 | 0.00 | 62 | 1003.3 |
| 20260506104109 | 17 | 329 | 4.8 | 9.7 | 0.00 | 0.03 | 0.00 | 61 | 1003.4 |
| 20260506104003 | 17 | 355 | 4.8 | 9.7 | 0.00 | 0.03 | 0.00 | 63 | 1003.4 |
| 20260506103903 | 16 | 79 | 4.8 | 9.7 | 0.00 | 0.03 | 0.00 | 62 | 1003.4 |
| 20260506103840 | 16 | 80 | 4.8 | 9.7 | 0.00 | 0.03 | 0.00 | 60 | 1003.4 |
| 20260506103802 | 16 | 62 | 4.8 | 9.7 | 0.00 | 0.03 | 0.00 | 60 | 1003.4 |
| 20260506103702 | 16 | 19 | 3.2 | 9.7 | 0.00 | 0.03 | 0.00 | 63 | 1003.5 |
| 20260506103601 | 16 | 312 | 3.2 | 9.7 | 0.00 | 0.03 | 0.00 | 63 | 1003.6 |
| 20260506103501 | 16 | 312 | 3.2 | 9.7 | 0.00 | 0.03 | 0.00 | 63 | 1003.6 |
| 20260506103401 | 16 | 313 | 3.2 | 9.7 | 0.00 | 0.03 | 0.00 | 64 | 1003.6 |
| 20260506103338 | 16 | 313 | 3.2 | 9.7 | 0.00 | 0.03 | 0.00 | 66 | 1003.7 |
| 20260506103301 | 16 | 319 | 3.2 | 8.0 | 0.00 | 0.03 | 0.00 | 66 | 1003.7 |
| 20260506103201 | 16 | 336 | 3.2 | 8.0 | 0.00 | 0.03 | 0.00 | 64 | 1003.7 |
| 20260506103101 | 16 | 53 | 1.6 | 8.0 | 0.00 | 0.03 | 0.00 | 64 | 1003.7 |
| 20260506103001 | 16 | 186 | 1.6 | 6.4 | 0.00 | 0.03 | 0.00 | 65 | 1003.8 |
| 20260506102901 | 16 | 186 | 3.2 | 6.4 | 0.00 | 0.03 | 0.00 | 64 | 1003.8 |
| 20260506102835 | 16 | 186 | 3.2 | 6.4 | 0.00 | 0.03 | 0.00 | 64 | 1003.9 |
| 20260506102802 | 16 | 186 | 3.2 | 6.4 | 0.00 | 0.03 | 0.00 | 65 | 1003.9 |
| 20260506102701 | 16 | 113 | 3.2 | 6.4 | 0.00 | 0.03 | 0.00 | 63 | 1003.8 |
| 20260506102601 | 16 | 113 | 3.2 | 6.4 | 0.00 | 0.03 | 0.00 | 64 | 1003.8 |
| 20260506102501 | 16 | 113 | 3.2 | 9.7 | 0.00 | 0.03 | 0.00 | 64 | 1003.8 |
| 20260506102401 | 16 | 113 | 3.2 | 9.7 | 0.00 | 0.03 | 0.00 | 65 | 1003.8 |
| 20260506102336 | 16 | 112 | 3.2 | 9.7 | 0.00 | 0.03 | 0.00 | 65 | 1003.9 |
| 20260506102301 | 16 | 112 | 3.2 | 9.7 | 0.00 | 0.03 | 0.00 | 64 | 1003.9 |
| 20260506102201 | 16 | 103 | 3.2 | 9.7 | 0.00 | 0.03 | 0.00 | 66 | 1003.9 |
| 20260506102101 | 16 | 101 | 3.2 | 9.7 | 0.00 | 0.03 | 0.00 | 64 | 1003.9 |
| 20260506102001 | 16 | 98 | 3.2 | 9.7 | 0.00 | 0.03 | 0.00 | 63 | 1003.9 |
| 20260506101859 | 16 | 205 | 3.2 | 9.7 | 0.00 | 0.03 | 0.00 | 65 | 1003.9 |
| 20260506101836 | 16 | 157 | 3.2 | 9.7 | 0.00 | 0.03 | 0.00 | 65 | 1003.9 |
| 20260506101757 | 16 | 112 | 3.2 | 9.7 | 0.00 | 0.03 | 0.00 | 63 | 1003.9 |
| 20260506101658 | 16 | 111 | 3.2 | 9.7 | 0.00 | 0.03 | 0.00 | 63 | 1003.9 |
| 20260506101557 | 16 | 111 | 3.2 | 9.7 | 0.00 | 0.03 | 0.00 | 63 | 1003.9 |
| 20260506101456 | 16 | 92 | 3.2 | 11.3 | 0.00 | 0.03 | 0.00 | 62 | 1003.9 |
| 20260506101356 | 16 | 93 | 3.2 | 11.3 | 0.00 | 0.03 | 0.00 | 63 | 1003.9 |
| 20260506101335 | 16 | 86 | 3.2 | 11.3 | 0.00 | 0.03 | 0.00 | 63 | 1003.9 |
| 20260506101256 | 16 | 119 | 3.2 | 11.3 | 0.00 | 0.03 | 0.00 | 64 | 1003.9 |
| 20260506101156 | 16 | 88 | 3.2 | 11.3 | 0.00 | 0.03 | 0.00 | 63 | 1004.0 |
| 20260506101106 | 16 | 71 | 1.6 | 11.3 | 0.00 | 0.03 | 0.00 | 65 | 1004.0 |
| 20260506101056 | 16 | 96 | 3.2 | 11.3 | 0.00 | 0.03 | 0.00 | 63 | 1004.0 |
| 20260506101051 | 16 | 115 | 3.2 | 11.3 | 0.00 | 0.03 | 0.00 | 63 | 1004.0 |
| 20260506101047 | 16 | 71 | 1.6 | 11.3 | 0.00 | 0.03 | 0.00 | 64 | 1004.0 |
| 20260506100753 | 16 | 98 | 3.2 | 11.3 | 0.00 | 0.03 | 0.00 | 64 | 1004.0 |
| 20260506100653 | 16 | 85 | 3.2 | 11.3 | 0.00 | 0.03 | 0.00 | 66 | 1004.0 |
| 20260506100553 | 16 | 96 | 1.6 | 11.3 | 0.00 | 0.03 | 0.00 | 67 | 1004.0 |
| 20260506100451 | 16 | 196 | 1.6 | 8.0 | 0.00 | 0.03 | 0.00 | 67 | 1004.0 |
| 20260506100352 | 16 | 196 | 1.6 | 8.0 | 0.00 | 0.03 | 0.00 | 67 | 1004.0 |
| 20260506100336 | 16 | 197 | 1.6 | 8.0 | 0.00 | 0.03 | 0.00 | 66 | 1004.0 |
| 20260506100252 | 16 | 197 | 1.6 | 8.0 | 0.00 | 0.03 | 0.00 | 66 | 1004.1 |
| 20260506100152 | 16 | 197 | 1.6 | 8.0 | 0.00 | 0.03 | 0.00 | 67 | 1004.1 |
| 20260506100052 | 16 | 196 | 1.6 | 8.0 | 0.00 | 0.03 | 0.00 | 67 | 1004.1 |
| 20260506095950 | 16 | 189 | 1.6 | 8.0 | 0.00 | 0.03 | 0.00 | 67 | 1004.1 |
| 20260506095850 | 15 | 189 | 1.6 | 8.0 | 0.00 | 0.03 | 0.00 | 66 | 1004.1 |
| 20260506095831 | 15 | 189 | 1.6 | 8.0 | 0.00 | 0.03 | 0.00 | 68 | 1004.1 |
| 20260506095747 | 15 | 188 | 1.6 | 8.0 | 0.00 | 0.03 | 0.00 | 68 | 1004.0 |
| 20260506095645 | 15 | 130 | 1.6 | 4.8 | 0.00 | 0.03 | 0.00 | 68 | 1004.1 |
| 20260506095545 | 15 | 129 | 1.6 | 4.8 | 0.00 | 0.03 | 0.00 | 67 | 1004.1 |
| 20260506095445 | 15 | 129 | 1.6 | 4.8 | 0.00 | 0.03 | 0.00 | 68 | 1004.1 |
| 20260506095345 | 15 | 129 | 1.6 | 4.8 | 0.00 | 0.03 | 0.00 | 66 | 1004.1 |
| 20260506095332 | 15 | 127 | 1.6 | 6.4 | 0.00 | 0.03 | 0.00 | 66 | 1004.1 |
| 20260506095246 | 15 | 127 | 1.6 | 6.4 | 0.00 | 0.03 | 0.00 | 67 | 1004.0 |
| 20260506095146 | 15 | 126 | 1.6 | 6.4 | 0.00 | 0.03 | 0.00 | 66 | 1004.0 |
| 20260506095051 | 15 | 127 | 1.6 | 6.4 | 0.00 | 0.03 | 0.00 | 66 | 1004.0 |
| 20260506095047 | 15 | 136 | 1.6 | 6.4 | 0.00 | 0.03 | 0.00 | 66 | 1004.0 |
| 20260506095043 | 15 | 136 | 1.6 | 6.4 | 0.00 | 0.03 | 0.00 | 66 | 1003.9 |
| 20260506094744 | 15 | 135 | 1.6 | 6.4 | 0.00 | 0.03 | 0.00 | 65 | 1003.9 |
| 20260506094644 | 15 | 135 | 1.6 | 6.4 | 0.00 | 0.03 | 0.00 | 66 | 1003.9 |
| 20260506094543 | 15 | 135 | 1.6 | 11.3 | 0.00 | 0.03 | 0.00 | 66 | 1003.9 |
| 20260506094444 | 15 | 135 | 1.6 | 11.3 | 0.00 | 0.03 | 0.00 | 64 | 1003.9 |
| 20260506094331 | 15 | 136 | 1.6 | 11.3 | 0.00 | 0.03 | 0.00 | 65 | 1003.9 |
| 20260506094244 | 15 | 136 | 3.2 | 11.3 | 0.00 | 0.03 | 0.00 | 65 | 1003.9 |
| 20260506094144 | 15 | 136 | 3.2 | 11.3 | 0.00 | 0.03 | 0.00 | 65 | 1004.0 |
| 20260506094055 | 15 | 151 | 3.2 | 11.3 | 0.00 | 0.03 | 0.00 | 64 | 1004.0 |
| 20260506094051 | 15 | 136 | 3.2 | 11.3 | 0.00 | 0.03 | 0.00 | 64 | 1003.9 |
| 20260506094047 | 15 | 135 | 3.2 | 11.3 | 0.00 | 0.03 | 0.00 | 65 | 1003.9 |
| 20260506094042 | 15 | 150 | 3.2 | 11.3 | 0.00 | 0.03 | 0.00 | 64 | 1004.0 |
| 20260506093823 | 15 | 100 | 3.2 | 9.7 | 0.00 | 0.03 | 0.00 | 63 | 1004.0 |
| 20260506093819 | 15 | 106 | 3.2 | 11.3 | 0.00 | 0.03 | 0.00 | 64 | 1004.0 |
| 20260506093815 | 15 | 98 | 3.2 | 11.3 | 0.00 | 0.03 | 0.00 | 64 | 1004.0 |
| 20260506093550 | 15 | 95 | 3.2 | 9.7 | 0.00 | 0.03 | 0.00 | 63 | 1003.9 |
| 20260506093545 | 15 | 95 | 3.2 | 9.7 | 0.00 | 0.03 | 0.00 | 63 | 1003.9 |
| 20260506093541 | 15 | 100 | 3.2 | 9.7 | 0.00 | 0.03 | 0.00 | 63 | 1004.0 |
| 20260506093239 | 15 | 98 | 3.2 | 6.4 | 0.00 | 0.03 | 0.00 | 64 | 1004.0 |
| 20260506093140 | 15 | 96 | 1.6 | 6.4 | 0.00 | 0.03 | 0.00 | 63 | 1003.9 |
| 20260506093040 | 15 | 88 | 1.6 | 6.4 | 0.00 | 0.03 | 0.00 | 63 | 1004.0 |
| 20260506092940 | 15 | 88 | 1.6 | 6.4 | 0.00 | 0.03 | 0.00 | 64 | 1003.9 |
| 20260506092831 | 15 | 93 | 1.6 | 6.4 | 0.00 | 0.03 | 0.00 | 67 | 1004.0 |
| 20260506092740 | 15 | 97 | 1.6 | 6.4 | 0.00 | 0.03 | 0.00 | 67 | 1004.0 |
| 20260506092639 | 15 | 124 | 1.6 | 6.4 | 0.00 | 0.03 | 0.00 | 65 | 1004.0 |
| 20260506092554 | 15 | 105 | 1.6 | 6.4 | 0.00 | 0.03 | 0.00 | 64 | 1004.1 |
| 20260506092550 | 15 | 110 | 1.6 | 4.8 | 0.00 | 0.03 | 0.00 | 65 | 1004.0 |
| 20260506092545 | 15 | 111 | 1.6 | 6.4 | 0.00 | 0.03 | 0.00 | 65 | 1004.0 |
| 20260506092541 | 15 | 105 | 1.6 | 6.4 | 0.00 | 0.03 | 0.00 | 66 | 1004.1 |
| 20260506092239 | 15 | 96 | 0.0 | 6.4 | 0.00 | 0.03 | 0.00 | 66 | 1004.0 |
| 20260506092139 | 15 | 91 | 0.0 | 6.4 | 0.00 | 0.03 | 0.00 | 66 | 1004.1 |
| 20260506092039 | 15 | 91 | 0.0 | 6.4 | 0.00 | 0.03 | 0.00 | 65 | 1004.1 |
| 20260506091940 | 15 | 91 | 0.0 | 6.4 | 0.00 | 0.03 | 0.00 | 66 | 1004.1 |
| 20260506091832 | 15 | 92 | 0.0 | 6.4 | 0.00 | 0.03 | 0.00 | 67 | 1004.1 |
| 20260506091736 | 15 | 91 | 1.6 | 6.4 | 0.00 | 0.03 | 0.00 | 67 | 1004.1 |
| 20260506091636 | 15 | 90 | 1.6 | 6.4 | 0.00 | 0.03 | 0.00 | 66 | 1004.1 |
| 20260506091535 | 15 | 89 | 1.6 | 6.4 | 0.00 | 0.03 | 0.00 | 69 | 1004.1 |
| 20260506091435 | 15 | 275 | 1.6 | 4.8 | 0.00 | 0.03 | 0.00 | 69 | 1004.1 |
| 20260506091331 | 15 | 275 | 1.6 | 4.8 | 0.00 | 0.03 | 0.00 | 70 | 1004.1 |
| 20260506091235 | 15 | 275 | 1.6 | 6.4 | 0.00 | 0.03 | 0.00 | 69 | 1004.1 |
| 20260506091135 | 15 | 275 | 1.6 | 6.4 | 0.00 | 0.03 | 0.00 | 68 | 1004.2 |
| 20260506091036 | 15 | 275 | 1.6 | 6.4 | 0.00 | 0.03 | 0.00 | 68 | 1004.2 |
| 20260506090936 | 15 | 275 | 1.6 | 6.4 | 0.00 | 0.03 | 0.00 | 69 | 1004.2 |
| 20260506090831 | 15 | 275 | 1.6 | 6.4 | 0.00 | 0.03 | 0.00 | 69 | 1004.2 |
| 20260506090736 | 15 | 275 | 3.2 | 6.4 | 0.00 | 0.03 | 0.00 | 70 | 1004.2 |
| 20260506090635 | 15 | 275 | 3.2 | 6.4 | 0.00 | 0.03 | 0.00 | 69 | 1004.2 |
| 20260506090535 | 15 | 275 | 1.6 | 6.4 | 0.00 | 0.03 | 0.00 | 69 | 1004.2 |
| 20260506090436 | 15 | 297 | 1.6 | 6.4 | 0.00 | 0.03 | 0.00 | 69 | 1004.1 |
| 20260506090332 | 15 | 297 | 1.6 | 6.4 | 0.00 | 0.03 | 0.00 | 70 | 1004.1 |
| 20260506090236 | 15 | 302 | 1.6 | 4.8 | 0.00 | 0.03 | 0.00 | 70 | 1004.1 |
| 20260506090135 | 15 | 302 | 1.6 | 4.8 | 0.00 | 0.03 | 0.00 | 70 | 1004.1 |
| 20260506090036 | 15 | 304 | 3.2 | 4.8 | 0.00 | 0.03 | 0.00 | 69 | 1004.1 |
| 20260506085936 | 15 | 305 | 3.2 | 4.8 | 0.00 | 0.03 | 0.00 | 69 | 1004.1 |
| 20260506085832 | 15 | 305 | 3.2 | 4.8 | 0.00 | 0.03 | 0.00 | 69 | 1004.0 |
| 20260506085731 | 15 | 304 | 1.6 | 4.8 | 0.00 | 0.03 | 0.00 | 69 | 1004.0 |
| 20260506085631 | 15 | 303 | 1.6 | 4.8 | 0.00 | 0.03 | 0.00 | 69 | 1004.0 |
| 20260506085532 | 14 | 303 | 1.6 | 4.8 | 0.00 | 0.03 | 0.00 | 69 | 1004.0 |
| 20260506085432 | 14 | 302 | 1.6 | 4.8 | 0.00 | 0.03 | 0.00 | 69 | 1004.1 |
| 20260506085332 | 14 | 302 | 1.6 | 4.8 | 0.00 | 0.03 | 0.00 | 69 | 1004.1 |
| 20260506085232 | 14 | 302 | 1.6 | 4.8 | 0.00 | 0.03 | 0.00 | 69 | 1004.1 |
| 20260506085132 | 14 | 302 | 1.6 | 4.8 | 0.00 | 0.03 | 0.00 | 69 | 1004.1 |
| 20260506085031 | 14 | 303 | 1.6 | 3.2 | 0.00 | 0.03 | 0.00 | 69 | 1004.1 |
| 20260506084932 | 14 | 71 | 1.6 | 4.8 | 0.00 | 0.03 | 0.00 | 68 | 1004.2 |
| 20260506084832 | 14 | 73 | 1.6 | 4.8 | 0.00 | 0.03 | 0.00 | 69 | 1004.2 |
| 20260506084732 | 14 | 71 | 1.6 | 4.8 | 0.00 | 0.03 | 0.00 | 69 | 1004.1 |
| 20260506084632 | 14 | 71 | 1.6 | 4.8 | 0.00 | 0.03 | 0.00 | 69 | 1004.2 |
| 20260506084532 | 14 | 71 | 1.6 | 4.8 | 0.00 | 0.03 | 0.00 | 70 | 1004.2 |
| 20260506084431 | 14 | 71 | 1.6 | 6.4 | 0.00 | 0.03 | 0.00 | 71 | 1004.2 |
| 20260506084331 | 14 | 71 | 1.6 | 6.4 | 0.00 | 0.03 | 0.00 | 70 | 1004.1 |
| 20260506084232 | 14 | 71 | 1.6 | 6.4 | 0.00 | 0.03 | 0.00 | 70 | 1004.1 |
| 20260506084131 | 14 | 71 | 1.6 | 6.4 | 0.00 | 0.03 | 0.00 | 70 | 1004.1 |
| 20260506084048 | 14 | 71 | 1.6 | 6.4 | 0.00 | 0.03 | 0.00 | 70 | 1004.1 |
| 20260506084044 | 14 | 71 | 1.6 | 6.4 | 0.00 | 0.03 | 0.00 | 70 | 1004.1 |
| 20260506084040 | 14 | 71 | 1.6 | 6.4 | 0.00 | 0.03 | 0.00 | 71 | 1004.1 |
| 20260506083729 | 14 | 71 | 1.6 | 6.4 | 0.00 | 0.03 | 0.00 | 70 | 1004.2 |
| 20260506083629 | 14 | 71 | 1.6 | 6.4 | 0.00 | 0.03 | 0.00 | 70 | 1004.2 |
| 20260506083529 | 14 | 71 | 1.6 | 6.4 | 0.00 | 0.03 | 0.00 | 72 | 1004.2 |
| 20260506083429 | 14 | 74 | 1.6 | 6.4 | 0.00 | 0.03 | 0.00 | 72 | 1004.2 |
| 20260506083329 | 14 | 346 | 1.6 | 6.4 | 0.00 | 0.03 | 0.00 | 71 | 1004.3 |
| 20260506083229 | 14 | 315 | 1.6 | 4.8 | 0.00 | 0.03 | 0.00 | 72 | 1004.3 |
| 20260506083129 | 14 | 315 | 0.0 | 3.2 | 0.00 | 0.03 | 0.00 | 72 | 1004.3 |
| 20260506083029 | 14 | 315 | 1.6 | 3.2 | 0.00 | 0.03 | 0.00 | 73 | 1004.3 |
| 20260506082929 | 14 | 315 | 1.6 | 4.8 | 0.00 | 0.03 | 0.00 | 72 | 1004.3 |
| 20260506082829 | 14 | 315 | 1.6 | 4.8 | 0.00 | 0.03 | 0.00 | 71 | 1004.3 |
| 20260506082729 | 14 | 315 | 1.6 | 4.8 | 0.00 | 0.03 | 0.00 | 70 | 1004.3 |
| 20260506082629 | 14 | 315 | 1.6 | 4.8 | 0.00 | 0.03 | 0.00 | 70 | 1004.3 |
| 20260506082529 | 14 | 315 | 1.6 | 4.8 | 0.00 | 0.03 | 0.00 | 70 | 1004.2 |
| 20260506082429 | 14 | 315 | 1.6 | 4.8 | 0.00 | 0.03 | 0.00 | 70 | 1004.3 |
| 20260506082328 | 14 | 315 | 1.6 | 4.8 | 0.00 | 0.03 | 0.00 | 70 | 1004.3 |
| 20260506082228 | 14 | 315 | 1.6 | 4.8 | 0.00 | 0.03 | 0.00 | 71 | 1004.3 |
| 20260506082129 | 14 | 315 | 3.2 | 4.8 | 0.00 | 0.03 | 0.00 | 72 | 1004.2 |
| 20260506082029 | 14 | 315 | 3.2 | 4.8 | 0.00 | 0.03 | 0.00 | 72 | 1004.3 |
| 20260506081929 | 13 | 315 | 1.6 | 4.8 | 0.00 | 0.03 | 0.00 | 73 | 1004.3 |
| 20260506081829 | 13 | 315 | 1.6 | 4.8 | 0.00 | 0.03 | 0.00 | 73 | 1004.2 |
| 20260506081729 | 13 | 315 | 1.6 | 4.8 | 0.00 | 0.03 | 0.00 | 74 | 1004.3 |
| 20260506081629 | 13 | 325 | 1.6 | 4.8 | 0.00 | 0.03 | 0.00 | 74 | 1004.2 |
| 20260506081551 | 13 | 325 | 1.6 | 4.8 | 0.00 | 0.03 | 0.00 | 74 | 1004.2 |
| 20260506081543 | 13 | 325 | 1.6 | 4.8 | 0.00 | 0.03 | 0.00 | 74 | 1004.2 |
| 20260506081539 | 13 | 325 | 1.6 | 4.8 | 0.00 | 0.03 | 0.00 | 74 | 1004.2 |
| 20260506081228 | 13 | 325 | 1.6 | 4.8 | 0.00 | 0.03 | 0.00 | 74 | 1004.2 |
| 20260506081129 | 13 | 325 | 1.6 | 4.8 | 0.00 | 0.03 | 0.00 | 74 | 1004.2 |
| 20260506081031 | 13 | 323 | 1.6 | 4.8 | 0.00 | 0.03 | 0.00 | 74 | 1004.2 |
| 20260506080929 | 13 | 323 | 1.6 | 6.4 | 0.00 | 0.03 | 0.00 | 74 | 1004.2 |
| 20260506080830 | 13 | 323 | 1.6 | 6.4 | 0.00 | 0.03 | 0.00 | 74 | 1004.2 |
| 20260506080730 | 13 | 323 | 1.6 | 6.4 | 0.00 | 0.03 | 0.00 | 74 | 1004.2 |
| 20260506080629 | 13 | 324 | 1.6 | 6.4 | 0.00 | 0.03 | 0.00 | 74 | 1004.2 |
| 20260506080529 | 13 | 9 | 3.2 | 6.4 | 0.00 | 0.03 | 0.00 | 74 | 1004.2 |
| 20260506080429 | 13 | 9 | 3.2 | 6.4 | 0.00 | 0.03 | 0.00 | 74 | 1004.2 |
| 20260506080330 | 13 | 9 | 1.6 | 6.4 | 0.00 | 0.03 | 0.00 | 74 | 1004.2 |
| 20260506080230 | 13 | 9 | 1.6 | 6.4 | 0.00 | 0.03 | 0.00 | 74 | 1004.1 |
| 20260506080130 | 13 | 9 | 1.6 | 6.4 | 0.00 | 0.03 | 0.00 | 75 | 1004.1 |
| 20260506073521 | 12 | 120 | 0.0 | 1.6 | 0.00 | 0.03 | 0.00 | 77 | 1004.1 |
| 20260506073419 | 12 | 120 | 0.0 | 1.6 | 0.00 | 0.03 | 0.00 | 77 | 1004.1 |
| 20260506073329 | 12 | 119 | 0.0 | 1.6 | 0.00 | 0.03 | 0.00 | 77 | 1004.1 |
| 20260506073319 | 12 | 120 | 0.0 | 1.6 | 0.00 | 0.03 | 0.00 | 78 | 1004.1 |
| 20260506073219 | 12 | 120 | 0.0 | 1.6 | 0.00 | 0.03 | 0.00 | 78 | 1004.2 |
| 20260506073119 | 12 | 120 | 0.0 | 1.6 | 0.00 | 0.03 | 0.00 | 78 | 1004.2 |
| 20260506073100 | 12 | 119 | 0.0 | 1.6 | 0.00 | 0.03 | 0.00 | 79 | 1004.2 |
| 20260506073048 | 12 | 119 | 0.0 | 1.6 | 0.00 | 0.03 | 0.00 | 78 | 1004.2 |
| 20260506073040 | 12 | 119 | 0.0 | 1.6 | 0.00 | 0.03 | 0.00 | 79 | 1004.2 |
| 20260506072819 | 12 | 119 | 0.0 | 1.6 | 0.00 | 0.03 | 0.00 | 79 | 1004.2 |
| 20260506072719 | 12 | 119 | 0.0 | 1.6 | 0.00 | 0.03 | 0.00 | 80 | 1004.2 |
| 20260506072619 | 12 | 119 | 0.0 | 1.6 | 0.00 | 0.03 | 0.00 | 79 | 1004.3 |
| 20260506072517 | 12 | 119 | 0.0 | 3.2 | 0.00 | 0.03 | 0.00 | 79 | 1004.3 |
| 20260506072417 | 12 | 119 | 0.0 | 3.2 | 0.00 | 0.03 | 0.00 | 79 | 1004.4 |
| 20260506072315 | 12 | 119 | 0.0 | 3.2 | 0.00 | 0.03 | 0.00 | 80 | 1004.4 |
| 20260506072216 | 12 | 119 | 0.0 | 3.2 | 0.00 | 0.03 | 0.00 | 81 | 1004.4 |
| 20260506072113 | 12 | 119 | 0.0 | 3.2 | 0.00 | 0.03 | 0.00 | 81 | 1004.5 |
| 20260506072011 | 12 | 119 | 0.0 | 3.2 | 0.00 | 0.03 | 0.00 | 81 | 1004.5 |
| 20260506071911 | 12 | 119 | 0.0 | 3.2 | 0.00 | 0.03 | 0.00 | 81 | 1004.5 |
| 20260506071809 | 12 | 119 | 0.0 | 3.2 | 0.00 | 0.03 | 0.00 | 80 | 1004.5 |
| 20260506071709 | 12 | 119 | 0.0 | 3.2 | 0.00 | 0.03 | 0.00 | 81 | 1004.5 |
| 20260506071608 | 12 | 119 | 0.0 | 3.2 | 0.00 | 0.03 | 0.00 | 83 | 1004.5 |
| 20260506071510 | 12 | 119 | 0.0 | 1.6 | 0.00 | 0.03 | 0.00 | 82 | 1004.5 |
| 20260506071405 | 12 | 119 | 0.0 | 1.6 | 0.00 | 0.03 | 0.00 | 83 | 1004.5 |
| 20260506071303 | 12 | 119 | 0.0 | 1.6 | 0.00 | 0.03 | 0.00 | 83 | 1004.5 |
| 20260506071203 | 12 | 119 | 0.0 | 1.6 | 0.00 | 0.03 | 0.00 | 82 | 1004.5 |
| 20260506071104 | 12 | 119 | 0.0 | 1.6 | 0.00 | 0.03 | 0.00 | 82 | 1004.5 |
| 20260506071100 | 12 | 119 | 0.0 | 1.6 | 0.00 | 0.03 | 0.00 | 83 | 1004.5 |
| 20260506071050 | 12 | 119 | 0.0 | 1.6 | 0.00 | 0.03 | 0.00 | 81 | 1004.4 |
| 20260506071042 | 12 | 119 | 0.0 | 1.6 | 0.00 | 0.03 | 0.00 | 81 | 1004.4 |
| 20260506070801 | 12 | 119 | 0.0 | 1.6 | 0.00 | 0.03 | 0.00 | 83 | 1004.5 |
| 20260506070701 | 12 | 119 | 0.0 | 1.6 | 0.00 | 0.03 | 0.00 | 83 | 1004.5 |
| 20260506070602 | 12 | 119 | 0.0 | 1.6 | 0.00 | 0.03 | 0.00 | 83 | 1004.4 |
| 20260506070506 | 12 | 119 | 0.0 | 1.6 | 0.00 | 0.03 | 0.00 | 83 | 1004.5 |
| 20260506070401 | 12 | 119 | 0.0 | 1.6 | 0.00 | 0.03 | 0.00 | 83 | 1004.5 |
| 20260506070301 | 11 | 119 | 0.0 | 1.6 | 0.00 | 0.03 | 0.00 | 83 | 1004.4 |
| 20260506070201 | 11 | 119 | 0.0 | 1.6 | 0.00 | 0.03 | 0.00 | 82 | 1004.5 |
| 20260506062501 | 11 | 105 | 0.0 | 4.8 | 0.00 | 0.03 | 0.00 | 85 | 1004.5 |
| 20260506062400 | 11 | 105 | 0.0 | 4.8 | 0.00 | 0.03 | 0.00 | 85 | 1004.5 |
| 20260506062300 | 11 | 105 | 0.0 | 4.8 | 0.00 | 0.03 | 0.00 | 85 | 1004.5 |
| 20260506062200 | 10 | 105 | 0.0 | 4.8 | 0.00 | 0.03 | 0.00 | 86 | 1004.5 |
| 20260506062101 | 10 | 105 | 0.0 | 4.8 | 0.00 | 0.03 | 0.00 | 86 | 1004.5 |
| 20260506062001 | 10 | 105 | 1.6 | 4.8 | 0.00 | 0.03 | 0.00 | 86 | 1004.5 |
| 20260506061901 | 10 | 105 | 1.6 | 4.8 | 0.00 | 0.03 | 0.00 | 86 | 1004.5 |
| 20260506061801 | 10 | 105 | 1.6 | 4.8 | 0.00 | 0.03 | 0.00 | 86 | 1004.5 |
| 20260506061701 | 10 | 105 | 1.6 | 4.8 | 0.00 | 0.03 | 0.00 | 86 | 1004.5 |
| 20260506061600 | 10 | 115 | 1.6 | 4.8 | 0.00 | 0.03 | 0.00 | 87 | 1004.5 |
| 20260506061500 | 10 | 115 | 1.6 | 4.8 | 0.00 | 0.03 | 0.00 | 86 | 1004.5 |
| 20260506061404 | 10 | 115 | 1.6 | 4.8 | 0.00 | 0.03 | 0.00 | 86 | 1004.6 |
| 20260506061329 | 10 | 116 | 1.6 | 4.8 | 0.00 | 0.03 | 0.00 | 86 | 1004.6 |
| 20260506061257 | 10 | 117 | 1.6 | 4.8 | 0.00 | 0.03 | 0.00 | 87 | 1004.6 |
| 20260506061155 | 10 | 117 | 1.6 | 4.8 | 0.00 | 0.03 | 0.00 | 87 | 1004.6 |
| 20260506061055 | 10 | 117 | 1.6 | 4.8 | 0.00 | 0.03 | 0.00 | 87 | 1004.7 |
| 20260506060955 | 10 | 117 | 1.6 | 4.8 | 0.00 | 0.03 | 0.00 | 87 | 1004.7 |
| 20260506060859 | 10 | 118 | 1.6 | 6.4 | 0.00 | 0.03 | 0.00 | 88 | 1004.7 |
| 20260506060829 | 10 | 118 | 1.6 | 6.4 | 0.00 | 0.03 | 0.00 | 87 | 1004.7 |
| 20260506060751 | 10 | 117 | 1.6 | 6.4 | 0.00 | 0.03 | 0.00 | 87 | 1004.6 |
| 20260506060649 | 10 | 117 | 3.2 | 6.4 | 0.00 | 0.03 | 0.00 | 87 | 1004.7 |
| 20260506060549 | 10 | 117 | 3.2 | 6.4 | 0.00 | 0.03 | 0.00 | 88 | 1004.6 |
| 20260506060449 | 10 | 117 | 3.2 | 6.4 | 0.00 | 0.03 | 0.00 | 88 | 1004.7 |
| 20260506060329 | 10 | 118 | 3.2 | 6.4 | 0.00 | 0.03 | 0.00 | 88 | 1004.6 |
| 20260506060243 | 10 | 133 | 3.2 | 6.4 | 0.00 | 0.03 | 0.00 | 88 | 1004.6 |
| 20260506060143 | 10 | 134 | 3.2 | 6.4 | 0.00 | 0.03 | 0.00 | 88 | 1004.6 |
| 20260506051315 | 7 | 109 | 0.0 | 3.2 | 0.00 | 0.03 | 0.00 | 92 | 1004.7 |
| 20260506051229 | 7 | 109 | 0.0 | 3.2 | 0.00 | 0.03 | 0.00 | 92 | 1004.7 |
| 20260506051129 | 7 | 109 | 0.0 | 1.6 | 0.00 | 0.03 | 0.00 | 92 | 1004.7 |
| 20260506050928 | 7 | 109 | 0.0 | 1.6 | 0.00 | 0.03 | 0.00 | 92 | 1004.7 |
| 20260506050813 | 7 | 109 | 0.0 | 1.6 | 0.00 | 0.03 | 0.00 | 92 | 1004.7 |
| 20260506050729 | 7 | 109 | 0.0 | 1.6 | 0.00 | 0.03 | 0.00 | 92 | 1004.7 |
| 20260506050629 | 7 | 109 | 0.0 | 1.6 | 0.00 | 0.03 | 0.00 | 92 | 1004.7 |
| 20260506050529 | 7 | 109 | 0.0 | 1.6 | 0.00 | 0.03 | 0.00 | 91 | 1004.7 |
| 20260506050429 | 7 | 109 | 0.0 | 1.6 | 0.00 | 0.03 | 0.00 | 91 | 1004.7 |
| 20260506050311 | 7 | 109 | 0.0 | 1.6 | 0.00 | 0.03 | 0.00 | 91 | 1004.7 |
| 20260506050229 | 7 | 109 | 0.0 | 1.6 | 0.00 | 0.03 | 0.00 | 91 | 1004.9 |
| 20260506050129 | 7 | 109 | 0.0 | 1.6 | 0.00 | 0.03 | 0.00 | 91 | 1004.9 |
| 20260506045129 | 7 | 109 | 1.6 | 3.2 | 0.00 | 0.03 | 0.00 | 90 | 1005.0 |
| 20260506045029 | 7 | 109 | 1.6 | 3.2 | 0.00 | 0.03 | 0.00 | 90 | 1005.0 |
| 20260506044929 | 7 | 109 | 1.6 | 3.2 | 0.00 | 0.03 | 0.00 | 90 | 1005.0 |
| 20260506044812 | 7 | 109 | 1.6 | 3.2 | 0.00 | 0.03 | 0.00 | 90 | 1005.0 |
| 20260506044729 | 7 | 109 | 0.0 | 3.2 | 0.00 | 0.03 | 0.00 | 90 | 1005.0 |
| 20260506044629 | 7 | 108 | 0.0 | 3.2 | 0.00 | 0.03 | 0.00 | 90 | 1005.0 |
| 20260506044529 | 7 | 108 | 0.0 | 3.2 | 0.00 | 0.03 | 0.00 | 90 | 1005.0 |
| 20260506044429 | 7 | 108 | 0.0 | 3.2 | 0.00 | 0.03 | 0.00 | 90 | 1005.0 |
| 20260506044329 | 7 | 108 | 0.0 | 3.2 | 0.00 | 0.03 | 0.00 | 90 | 1005.0 |
| 20260506044310 | 7 | 108 | 0.0 | 3.2 | 0.00 | 0.03 | 0.00 | 90 | 1005.0 |
| 20260506044229 | 7 | 108 | 0.0 | 3.2 | 0.00 | 0.03 | 0.00 | 89 | 1004.9 |
| 20260506044129 | 7 | 108 | 0.0 | 3.2 | 0.00 | 0.03 | 0.00 | 89 | 1004.9 |
| 20260506044030 | 7 | 108 | 0.0 | 3.2 | 0.00 | 0.03 | 0.00 | 89 | 1004.9 |
| 20260506043811 | 7 | 108 | 0.0 | 3.2 | 0.00 | 0.03 | 0.00 | 89 | 1004.9 |
| 20260506043727 | 7 | 108 | 0.0 | 3.2 | 0.00 | 0.03 | 0.00 | 89 | 1004.9 |
| 20260506043627 | 7 | 108 | 0.0 | 3.2 | 0.00 | 0.03 | 0.00 | 88 | 1004.9 |
| 20260506043524 | 7 | 108 | 0.0 | 1.6 | 0.00 | 0.03 | 0.00 | 88 | 1005.0 |
| 20260506043423 | 7 | 108 | 0.0 | 1.6 | 0.00 | 0.03 | 0.00 | 88 | 1005.0 |
| 20260506043311 | 7 | 108 | 0.0 | 1.6 | 0.00 | 0.03 | 0.00 | 88 | 1005.0 |
| 20260506043221 | 7 | 108 | 0.0 | 1.6 | 0.00 | 0.03 | 0.00 | 88 | 1005.1 |
| 20260506043120 | 7 | 108 | 0.0 | 3.2 | 0.00 | 0.03 | 0.00 | 87 | 1005.0 |
| 20260506043018 | 7 | 108 | 0.0 | 3.2 | 0.00 | 0.03 | 0.00 | 87 | 1005.0 |
| 20260506042919 | 7 | 108 | 0.0 | 3.2 | 0.00 | 0.03 | 0.00 | 87 | 1005.1 |
| 20260506042809 | 7 | 108 | 1.6 | 3.2 | 0.00 | 0.03 | 0.00 | 87 | 1005.1 |
| 20260506042717 | 7 | 108 | 1.6 | 3.2 | 0.00 | 0.03 | 0.00 | 87 | 1005.1 |
| 20260506042615 | 7 | 108 | 1.6 | 3.2 | 0.00 | 0.03 | 0.00 | 87 | 1005.1 |
| 20260506042513 | 7 | 108 | 1.6 | 3.2 | 0.00 | 0.03 | 0.00 | 88 | 1005.1 |
| 20260506042413 | 7 | 108 | 1.6 | 3.2 | 0.00 | 0.03 | 0.00 | 88 | 1005.1 |
| 20260506042311 | 8 | 108 | 1.6 | 3.2 | 0.00 | 0.03 | 0.00 | 88 | 1005.2 |
| 20260506042306 | 7 | 108 | 1.6 | 3.2 | 0.00 | 0.03 | 0.00 | 88 | 1005.2 |
| 20260506042211 | 8 | 108 | 1.6 | 4.8 | 0.00 | 0.03 | 0.00 | 88 | 1005.2 |
| 20260506042109 | 8 | 108 | 1.6 | 4.8 | 0.00 | 0.03 | 0.00 | 88 | 1005.1 |
| 20260506042006 | 8 | 108 | 1.6 | 4.8 | 0.00 | 0.03 | 0.00 | 88 | 1005.2 |
| 20260506041904 | 8 | 108 | 1.6 | 4.8 | 0.00 | 0.03 | 0.00 | 88 | 1005.2 |
| 20260506041805 | 8 | 108 | 1.6 | 4.8 | 0.00 | 0.03 | 0.00 | 88 | 1005.1 |
| 20260506041703 | 8 | 108 | 0.0 | 4.8 | 0.00 | 0.03 | 0.00 | 88 | 1005.1 |
| 20260506041602 | 8 | 108 | 0.0 | 4.8 | 0.00 | 0.03 | 0.00 | 87 | 1005.1 |
| 20260506041503 | 8 | 108 | 0.0 | 4.8 | 0.00 | 0.03 | 0.00 | 87 | 1005.1 |
| 20260506041401 | 8 | 108 | 0.0 | 4.8 | 0.00 | 0.03 | 0.00 | 87 | 1005.2 |
| 20260506041301 | 8 | 108 | 0.0 | 4.8 | 0.00 | 0.03 | 0.00 | 88 | 1005.2 |
| 20260506041201 | 8 | 100 | 0.0 | 3.2 | 0.00 | 0.03 | 0.00 | 88 | 1005.1 |
| 20260506041101 | 8 | 100 | 0.0 | 3.2 | 0.00 | 0.03 | 0.00 | 88 | 1005.1 |
| 20260506041020 | 8 | 99 | 0.0 | 1.6 | 0.00 | 0.03 | 0.00 | 88 | 1005.1 |
| 20260506041016 | 8 | 99 | 0.0 | 1.6 | 0.00 | 0.03 | 0.00 | 89 | 1005.0 |
| 20260506041012 | 8 | 99 | 0.0 | 1.6 | 0.00 | 0.03 | 0.00 | 89 | 1005.0 |
| 20260506040701 | 8 | 98 | 0.0 | 1.6 | 0.00 | 0.03 | 0.00 | 89 | 1005.0 |
| 20260506040601 | 8 | 98 | 0.0 | 1.6 | 0.00 | 0.03 | 0.00 | 89 | 1005.0 |
| 20260506040501 | 8 | 98 | 0.0 | 1.6 | 0.00 | 0.03 | 0.00 | 89 | 1005.0 |
| 20260506040401 | 8 | 98 | 0.0 | 1.6 | 0.00 | 0.03 | 0.00 | 89 | 1005.1 |
| 20260506040301 | 8 | 98 | 0.0 | 1.6 | 0.00 | 0.03 | 0.00 | 89 | 1005.0 |
| 20260506040201 | 8 | 98 | 0.0 | 1.6 | 0.00 | 0.03 | 0.00 | 89 | 1005.1 |
| 20260506040101 | 8 | 98 | 0.0 | 1.6 | 0.00 | 0.03 | 0.00 | 89 | 1005.1 |
| 20260506040001 | 8 | 98 | 0.0 | 3.2 | 0.00 | 0.03 | 0.00 | 89 | 1005.1 |
| 20260506035901 | 8 | 98 | 0.0 | 3.2 | 0.00 | 0.03 | 0.00 | 89 | 1005.1 |
| 20260506035800 | 8 | 98 | 0.0 | 3.2 | 0.00 | 0.03 | 0.00 | 89 | 1005.2 |
| 20260506035701 | 8 | 98 | 0.0 | 3.2 | 0.00 | 0.03 | 0.00 | 89 | 1005.2 |
| 20260506035601 | 8 | 98 | 0.0 | 3.2 | 0.00 | 0.03 | 0.00 | 89 | 1005.1 |
| 20260506035501 | 8 | 98 | 0.0 | 3.2 | 0.00 | 0.03 | 0.00 | 89 | 1005.1 |
| 20260506035401 | 8 | 98 | 0.0 | 3.2 | 0.00 | 0.03 | 0.00 | 89 | 1005.1 |
| 20260506035300 | 8 | 98 | 0.0 | 3.2 | 0.00 | 0.03 | 0.00 | 89 | 1005.1 |
| 20260506035254 | 8 | 98 | 0.0 | 3.2 | 0.00 | 0.03 | 0.00 | 89 | 1005.1 |
| 20260506035200 | 8 | 98 | 0.0 | 3.2 | 0.00 | 0.03 | 0.00 | 89 | 1005.1 |
| 20260506035100 | 8 | 98 | 0.0 | 3.2 | 0.00 | 0.03 | 0.00 | 89 | 1005.1 |
| 20260506035006 | 8 | 99 | 0.0 | 1.6 | 0.00 | 0.03 | 0.00 | 89 | 1005.3 |
| 20260506035001 | 8 | 99 | 0.0 | 3.2 | 0.00 | 0.03 | 0.00 | 89 | 1005.2 |
| 20260506034901 | 8 | 99 | 0.0 | 3.2 | 0.00 | 0.03 | 0.00 | 89 | 1005.2 |
| 20260506034801 | 8 | 99 | 0.0 | 1.6 | 0.00 | 0.03 | 0.00 | 89 | 1005.2 |
| 20260506034701 | 8 | 99 | 0.0 | 1.6 | 0.00 | 0.03 | 0.00 | 89 | 1005.3 |
| 20260506034600 | 8 | 99 | 0.0 | 1.6 | 0.00 | 0.03 | 0.00 | 89 | 1005.3 |
| 20260506034500 | 8 | 99 | 0.0 | 0.0 | 0.00 | 0.03 | 0.00 | 89 | 1005.3 |
| 20260506034401 | 8 | 99 | 0.0 | 0.0 | 0.00 | 0.03 | 0.00 | 89 | 1005.3 |
| 20260506034301 | 8 | 99 | 0.0 | 0.0 | 0.00 | 0.03 | 0.00 | 89 | 1005.4 |
| 20260506034243 | 8 | 99 | 0.0 | 1.6 | 0.00 | 0.03 | 0.00 | 89 | 1005.4 |
| 20260506034201 | 8 | 99 | 0.0 | 1.6 | 0.00 | 0.03 | 0.00 | 89 | 1005.4 |
| 20260506034105 | 8 | 99 | 0.0 | 1.6 | 0.00 | 0.03 | 0.00 | 89 | 1005.4 |
| 20260506034006 | 8 | 99 | 0.0 | 1.6 | 0.00 | 0.03 | 0.00 | 89 | 1005.3 |
| 20260506034001 | 8 | 100 | 0.0 | 1.6 | 0.00 | 0.03 | 0.00 | 89 | 1005.4 |
| 20260506033957 | 8 | 99 | 0.0 | 1.6 | 0.00 | 0.03 | 0.00 | 89 | 1005.4 |
| 20260506033953 | 8 | 99 | 0.0 | 1.6 | 0.00 | 0.03 | 0.00 | 89 | 1005.3 |
| 20260506033701 | 8 | 99 | 0.0 | 1.6 | 0.00 | 0.03 | 0.00 | 89 | 1005.3 |
| 20260506033601 | 8 | 99 | 0.0 | 1.6 | 0.00 | 0.03 | 0.00 | 89 | 1005.3 |
| 20260506033501 | 8 | 99 | 0.0 | 1.6 | 0.00 | 0.03 | 0.00 | 89 | 1005.4 |
| 20260506033401 | 8 | 99 | 0.0 | 1.6 | 0.00 | 0.03 | 0.00 | 89 | 1005.4 |
| 20260506033301 | 8 | 99 | 0.0 | 1.6 | 0.00 | 0.03 | 0.00 | 89 | 1005.4 |
| 20260506033243 | 8 | 99 | 0.0 | 1.6 | 0.00 | 0.03 | 0.00 | 89 | 1005.4 |
| 20260506033201 | 8 | 99 | 0.0 | 1.6 | 0.00 | 0.03 | 0.00 | 89 | 1005.4 |
| 20260506033100 | 8 | 99 | 0.0 | 1.6 | 0.00 | 0.03 | 0.00 | 89 | 1005.4 |
| 20260506033001 | 8 | 99 | 0.0 | 1.6 | 0.00 | 0.03 | 0.00 | 89 | 1005.4 |
| 20260506032901 | 8 | 99 | 0.0 | 1.6 | 0.00 | 0.03 | 0.00 | 89 | 1005.4 |
| 20260506032801 | 8 | 99 | 0.0 | 1.6 | 0.00 | 0.03 | 0.00 | 89 | 1005.5 |
| 20260506032740 | 8 | 100 | 0.0 | 1.6 | 0.00 | 0.03 | 0.00 | 89 | 1005.4 |
| 20260506032701 | 8 | 99 | 0.0 | 1.6 | 0.00 | 0.03 | 0.00 | 89 | 1005.4 |
| 20260506032601 | 8 | 99 | 0.0 | 3.2 | 0.00 | 0.03 | 0.00 | 89 | 1005.4 |
| 20260506032501 | 8 | 99 | 0.0 | 3.2 | 0.00 | 0.03 | 0.00 | 89 | 1005.5 |
| 20260506032401 | 8 | 99 | 0.0 | 3.2 | 0.00 | 0.03 | 0.00 | 89 | 1005.5 |
| 20260506032254 | 8 | 99 | 0.0 | 3.2 | 0.00 | 0.03 | 0.00 | 89 | 1005.5 |
| 20260506032242 | 8 | 100 | 0.0 | 3.2 | 0.00 | 0.03 | 0.00 | 89 | 1005.5 |
| 20260506032055 | 8 | 99 | 0.0 | 3.2 | 0.00 | 0.03 | 0.00 | 89 | 1005.6 |
| 20260506031954 | 8 | 100 | 0.0 | 3.2 | 0.00 | 0.03 | 0.00 | 89 | 1005.6 |
| 20260506031854 | 8 | 99 | 0.0 | 3.2 | 0.00 | 0.03 | 0.00 | 89 | 1005.6 |
| 20260506031741 | 8 | 99 | 0.0 | 3.2 | 0.00 | 0.03 | 0.00 | 89 | 1005.6 |
| 20260506031651 | 8 | 99 | 0.0 | 3.2 | 0.00 | 0.03 | 0.00 | 89 | 1005.6 |
| 20260506031551 | 8 | 99 | 0.0 | 3.2 | 0.00 | 0.03 | 0.00 | 89 | 1005.6 |
| 20260506031450 | 8 | 99 | 0.0 | 3.2 | 0.00 | 0.03 | 0.00 | 89 | 1005.7 |
| 20260506031348 | 8 | 99 | 0.0 | 3.2 | 0.00 | 0.03 | 0.00 | 89 | 1005.7 |
| 20260506031241 | 8 | 99 | 0.0 | 3.2 | 0.00 | 0.03 | 0.00 | 89 | 1005.7 |
| 20260506031147 | 8 | 99 | 0.0 | 3.2 | 0.00 | 0.03 | 0.00 | 89 | 1005.7 |
| 20260506031047 | 8 | 99 | 0.0 | 3.2 | 0.00 | 0.03 | 0.00 | 89 | 1005.7 |
| 20260506030944 | 8 | 98 | 0.0 | 3.2 | 0.00 | 0.03 | 0.00 | 89 | 1005.8 |
| 20260506030842 | 8 | 98 | 0.0 | 3.2 | 0.00 | 0.03 | 0.00 | 89 | 1005.7 |
| 20260506030742 | 8 | 99 | 0.0 | 3.2 | 0.00 | 0.03 | 0.00 | 89 | 1005.7 |
| 20260506030640 | 8 | 98 | 0.0 | 3.2 | 0.00 | 0.03 | 0.00 | 89 | 1005.7 |
| 20260506030541 | 8 | 99 | 0.0 | 3.2 | 0.00 | 0.03 | 0.00 | 89 | 1005.7 |
| 20260506030501 | 8 | 99 | 0.0 | 1.6 | 0.00 | 0.03 | 0.00 | 89 | 1005.7 |
| 20260506030456 | 8 | 99 | 0.0 | 1.6 | 0.00 | 0.03 | 0.00 | 89 | 1005.7 |
| 20260506030452 | 8 | 98 | 0.0 | 1.6 | 0.00 | 0.03 | 0.00 | 89 | 1005.7 |
| 20260506030236 | 8 | 98 | 0.0 | 1.6 | 0.00 | 0.03 | 0.00 | 89 | 1005.7 |
| 20260506030136 | 8 | 99 | 0.0 | 1.6 | 0.00 | 0.03 | 0.00 | 89 | 1005.7 |
| 20260506030037 | 8 | 98 | 0.0 | 1.6 | 0.00 | 0.03 | 0.00 | 89 | 1005.7 |
| 20260506025935 | 8 | 98 | 0.0 | 1.6 | 0.00 | 0.03 | 0.00 | 89 | 1005.7 |
| 20260506025835 | 8 | 98 | 0.0 | 1.6 | 0.00 | 0.03 | 0.00 | 89 | 1005.6 |